FW6030 Weather Reports


Display with metric or nautical units.
time (UTC)temp
F
wind
direction
speed
MPH
gust
MPH
rain 1hr
in
rain 24hr
in
rain mn
in
humidity
%
barometer
mb
20260505163420 73 360 5.0 13.0 0.00 0.00 0.00 84 1010.1
20260505163321 73 360 5.0 13.0 0.00 0.00 0.00 84 1010.1
20260505163226 73 360 5.0 13.0 0.00 0.00 0.00 84 1010.1
20260505163125 73 360 5.0 13.0 0.00 0.00 0.00 84 1010.1
20260505163027 73 360 5.0 13.0 0.00 0.00 0.00 84 1010.0
20260505162927 73 360 4.0 13.0 0.00 0.00 0.00 83 1010.0
20260505162828 73 360 4.0 13.0 0.00 0.00 0.00 83 1010.0
20260505162730 73 360 3.0 13.0 0.00 0.00 0.00 84 1010.0
20260505162650 73 360 2.0 11.0 0.00 0.00 0.00 84 1010.0
20260505162532 73 360 2.0 11.0 0.00 0.00 0.00 84 1010.1
20260505162432 73 360 2.0 11.0 0.00 0.00 0.00 83 1010.0
20260505162352 73 360 2.0 11.0 0.00 0.00 0.00 83 1010.1
20260505162232 73 360 2.0 11.0 0.00 0.00 0.00 83 1010.0
20260505162152 73 360 3.0 11.0 0.00 0.00 0.00 83 1010.1
20260505162032 73 360 3.0 12.0 0.00 0.00 0.00 84 1010.0
20260505161932 73 360 3.0 12.0 0.00 0.00 0.00 84 1010.1
20260505161817 73 360 4.0 12.0 0.00 0.00 0.00 84 1010.1
20260505161717 73 360 4.0 12.0 0.00 0.00 0.00 84 1010.1
20260505161617 73 360 5.0 12.0 0.00 0.00 0.00 85 1010.2
20260505161538 73 360 5.0 12.0 0.00 0.00 0.00 85 1010.2
20260505161416 73 360 5.0 12.0 0.00 0.00 0.00 85 1010.2
20260505161317 73 360 5.0 12.0 0.00 0.00 0.00 85 1010.2
20260505161217 73 360 5.0 12.0 0.00 0.00 0.00 84 1010.2
20260505161118 73 360 4.0 11.0 0.00 0.00 0.00 84 1010.2
20260505161023 73 360 4.0 9.0 0.00 0.00 0.00 85 1010.2
20260505160923 73 360 3.0 9.0 0.00 0.00 0.00 85 1010.1
20260505160823 73 360 3.0 9.0 0.00 0.00 0.00 85 1010.2
20260505160724 73 360 3.0 9.0 0.00 0.00 0.00 85 1010.1
20260505160624 73 360 3.0 9.0 0.00 0.00 0.00 85 1010.2
20260505160523 73 360 3.0 9.0 0.00 0.00 0.00 85 1010.2
20260505160444 73 360 3.0 9.0 0.00 0.00 0.00 85 1010.2
20260505160328 73 360 3.0 9.0 0.00 0.00 0.00 85 1010.2
20260505160228 73 360 3.0 9.0 0.00 0.00 0.00 85 1010.2
20260505160127 73 360 3.0 9.0 0.00 0.00 0.00 85 1010.1
20260505153339 72 360 3.0 9.0 0.00 0.00 0.00 87 1010.3
20260505153217 72 360 2.0 6.0 0.00 0.00 0.00 87 1010.3
20260505153118 72 360 2.0 6.0 0.00 0.00 0.00 87 1010.2
20260505153039 72 360 2.0 6.0 0.00 0.00 0.00 87 1010.3
20260505152919 72 360 2.0 6.0 0.00 0.00 0.00 87 1010.3
20260505152820 72 360 2.0 11.0 0.00 0.00 0.00 87 1010.2
20260505152724 72 360 2.0 11.0 0.00 0.00 0.00 87 1010.2
20260505152624 72 360 2.0 11.0 0.00 0.00 0.00 87 1010.2
20260505152525 72 360 2.0 11.0 0.00 0.00 0.00 87 1010.1
20260505152425 72 360 3.0 11.0 0.00 0.00 0.00 87 1010.2
20260505152325 72 360 4.0 11.0 0.00 0.00 0.00 87 1010.1
20260505152225 72 360 4.0 11.0 0.00 0.00 0.00 87 1010.1
20260505152125 72 360 5.0 11.0 0.00 0.00 0.00 87 1010.1
20260505152046 71 360 5.0 11.0 0.00 0.00 0.00 87 1010.1
20260505151929 71 360 4.0 11.0 0.00 0.00 0.00 87 1010.1
20260505151829 71 360 3.0 11.0 0.00 0.00 0.00 87 1010.2
20260505151730 71 360 4.0 11.0 0.00 0.00 0.00 87 1010.1
20260505151630 71 360 3.0 11.0 0.00 0.00 0.00 87 1010.2
20260505151551 71 360 4.0 11.0 0.00 0.00 0.00 87 1010.3
20260505151431 71 360 4.0 16.0 0.00 0.00 0.00 87 1010.3
20260505151331 71 360 4.0 16.0 0.00 0.00 0.00 87 1010.3
20260505151236 71 360 4.0 16.0 0.00 0.00 0.00 87 1010.3
20260505151135 71 360 4.0 16.0 0.00 0.00 0.00 88 1010.2
20260505151035 71 360 4.0 16.0 0.00 0.00 0.00 88 1010.1
20260505150935 71 360 4.0 16.0 0.00 0.00 0.00 88 1010.1
20260505150816 71 360 5.0 16.0 0.00 0.00 0.00 88 1010.0
20260505150716 71 360 4.0 16.0 0.00 0.00 0.00 88 1009.9
20260505150621 71 360 5.0 16.0 0.00 0.00 0.00 88 1010.0
20260505150522 71 360 3.0 15.0 0.00 0.00 0.00 88 1009.9
20260505150422 71 360 3.0 15.0 0.00 0.00 0.00 88 1009.9
20260505150342 71 360 4.0 15.0 0.00 0.00 0.00 88 1009.9
20260505150221 71 360 5.0 15.0 0.00 0.00 0.00 88 1009.9
20260505150122 71 360 5.0 15.0 0.00 0.00 0.00 88 1009.8
20260505140617 71 360 2.0 16.0 0.00 0.00 0.00 88 1009.7
20260505140519 71 360 2.0 16.0 0.00 0.00 0.00 88 1009.7
20260505140417 71 360 3.0 16.0 0.00 0.00 0.00 88 1009.7
20260505140318 71 360 4.0 16.0 0.00 0.00 0.00 88 1009.6
20260505140223 71 360 5.0 16.0 0.00 0.00 0.00 88 1009.6
20260505140123 71 360 5.0 16.0 0.00 0.00 0.00 88 1009.7
20260505130217 70 360 4.0 16.0 0.00 0.00 0.00 87 1009.1
20260505130118 70 360 4.0 16.0 0.00 0.00 0.00 87 1009.2
20260505125026 70 360 6.0 19.0 0.00 0.00 0.00 87 1008.9
20260505124927 70 360 7.0 19.0 0.00 0.00 0.00 88 1008.9
20260505124827 70 360 7.0 19.0 0.00 0.00 0.00 87 1008.9
20260505124747 70 360 7.0 19.0 0.00 0.00 0.00 88 1008.8
20260505124627 70 360 7.0 19.0 0.00 0.00 0.00 87 1008.9
20260505124548 70 360 7.0 19.0 0.00 0.00 0.00 87 1008.9
20260505124427 70 360 7.0 19.0 0.00 0.00 0.00 87 1008.7
20260505124329 70 360 6.0 19.0 0.00 0.00 0.00 88 1008.8
20260505124254 70 360 6.0 14.0 0.00 0.00 0.00 88 1008.8
20260505124134 70 360 5.0 14.0 0.00 0.00 0.00 88 1008.8
20260505124055 70 360 4.0 12.0 0.00 0.00 0.00 88 1008.8
20260505123934 70 360 4.0 12.0 0.00 0.00 0.00 88 1008.8
20260505123835 70 360 4.0 14.0 0.00 0.00 0.00 88 1008.7
20260505123735 70 360 3.0 14.0 0.00 0.00 0.00 88 1008.7
20260505123617 70 360 2.0 14.0 0.00 0.00 0.00 88 1008.7
20260505123542 70 360 2.0 14.0 0.00 0.00 0.00 88 1008.7
20260505123416 70 360 4.0 14.0 0.00 0.00 0.00 88 1008.7
20260505123316 70 360 4.0 14.0 0.00 0.00 0.00 88 1008.7
20260505123217 70 360 5.0 14.0 0.00 0.00 0.00 88 1008.6
20260505123137 70 360 5.0 14.0 0.00 0.00 0.00 88 1008.6
20260505123016 70 360 5.0 14.0 0.00 0.00 0.00 87 1008.6
20260505122917 70 360 5.0 14.0 0.00 0.00 0.00 87 1008.6
20260505122822 70 360 5.0 16.0 0.00 0.00 0.00 87 1008.6
20260505122721 70 360 5.0 16.0 0.00 0.00 0.00 87 1008.6
20260505122622 70 360 5.0 16.0 0.00 0.00 0.00 87 1008.6
20260505122523 70 360 6.0 16.0 0.00 0.00 0.00 87 1008.5
20260505122444 70 360 6.0 16.0 0.00 0.00 0.00 87 1008.6
20260505122323 70 360 5.0 16.0 0.00 0.00 0.00 87 1008.5
20260505122223 70 360 5.0 16.0 0.00 0.00 0.00 87 1008.5
20260505122148 70 360 6.0 16.0 0.00 0.00 0.00 87 1008.5
20260505122027 70 360 7.0 16.0 0.00 0.00 0.00 87 1008.5
20260505121948 70 360 7.0 16.0 0.00 0.00 0.00 87 1008.5
20260505121828 70 360 7.0 15.0 0.00 0.00 0.00 87 1008.4
20260505121748 70 360 6.0 15.0 0.00 0.00 0.00 87 1008.5
20260505121627 70 360 7.0 15.0 0.00 0.00 0.00 87 1008.4
20260505121528 70 360 6.0 15.0 0.00 0.00 0.00 87 1008.3
20260505121429 70 360 6.0 15.0 0.00 0.00 0.00 87 1008.3
20260505121333 70 360 6.0 15.0 0.00 0.00 0.00 87 1008.3
20260505121233 70 360 6.0 15.0 0.00 0.00 0.00 87 1008.2
20260505121155 70 360 6.0 15.0 0.00 0.00 0.00 87 1008.3
20260505121035 70 360 6.0 15.0 0.00 0.00 0.00 87 1008.3
20260505120936 70 360 6.0 15.0 0.00 0.00 0.00 87 1008.3
20260505120857 70 360 6.0 15.0 0.00 0.00 0.00 87 1008.3
20260505120755 70 360 5.0 15.0 0.00 0.00 0.00 87 1008.2
20260505120620 70 360 5.0 14.0 0.00 0.00 0.00 87 1008.4
20260505120521 70 360 5.0 14.0 0.00 0.00 0.00 87 1008.3
20260505120422 70 360 5.0 14.0 0.00 0.00 0.00 87 1008.3
20260505120321 70 360 4.0 14.0 0.00 0.00 0.00 87 1008.4
20260505120222 70 360 3.0 14.0 0.00 0.00 0.00 87 1008.4
20260505120142 70 360 4.0 14.0 0.00 0.00 0.00 87 1008.4
20260505120023 70 360 3.0 10.0 0.00 0.00 0.00 87 1008.4
20260505115926 70 360 3.0 10.0 0.00 0.00 0.00 87 1008.4
20260505115827 70 360 4.0 10.0 0.00 0.00 0.00 87 1008.3
20260505115729 70 360 5.0 10.0 0.00 0.00 0.00 87 1008.3
20260505115629 70 360 4.0 10.0 0.00 0.00 0.00 87 1008.3
20260505115529 70 360 4.0 10.0 0.00 0.00 0.00 87 1008.3
20260505115429 70 360 4.0 12.0 0.00 0.00 0.00 87 1008.2
20260505115330 70 360 4.0 13.0 0.00 0.00 0.00 87 1008.3
20260505115234 70 360 4.0 13.0 0.00 0.00 0.00 87 1008.3
20260505115135 70 360 5.0 13.0 0.00 0.00 0.00 87 1008.3
20260505115016 70 360 5.0 13.0 0.00 0.00 0.00 87 1008.3
20260505114937 70 360 5.0 13.0 0.00 0.00 0.00 87 1008.3
20260505114836 70 360 6.0 13.0 0.00 0.00 0.00 87 1008.3
20260505114716 70 360 5.0 13.0 0.00 0.00 0.00 87 1008.3
20260505114617 70 360 5.0 13.0 0.00 0.00 0.00 87 1008.3
20260505114522 70 360 5.0 13.0 0.00 0.00 0.00 87 1008.4
20260505114443 70 360 5.0 13.0 0.00 0.00 0.00 87 1008.3
20260505114322 70 360 5.0 13.0 0.00 0.00 0.00 87 1008.3
20260505114242 70 360 5.0 13.0 0.00 0.00 0.00 87 1008.3
20260505114142 70 360 5.0 13.0 0.00 0.00 0.00 87 1008.2
20260505114043 70 360 5.0 12.0 0.00 0.00 0.00 87 1008.2
20260505113921 70 360 5.0 12.0 0.00 0.00 0.00 87 1008.2
20260505113822 70 360 5.0 12.0 0.00 0.00 0.00 87 1008.2
20260505113727 70 360 5.0 12.0 0.00 0.00 0.00 87 1008.2
20260505113627 70 360 5.0 12.0 0.00 0.00 0.00 87 1008.1
20260505113548 70 360 5.0 12.0 0.00 0.00 0.00 87 1008.1
20260505113428 70 360 4.0 10.0 0.00 0.00 0.00 87 1008.1
20260505113348 70 360 4.0 10.0 0.00 0.00 0.00 87 1008.0
20260505113228 70 360 4.0 10.0 0.00 0.00 0.00 87 1008.1
20260505113129 70 360 4.0 10.0 0.00 0.00 0.00 87 1008.1
20260505113051 70 360 4.0 13.0 0.00 0.00 0.00 87 1008.0
20260505112934 70 360 4.0 13.0 0.00 0.00 0.00 87 1007.9
20260505112834 70 360 4.0 13.0 0.00 0.00 0.00 87 1007.9
20260505112735 70 360 4.0 13.0 0.00 0.00 0.00 87 1008.0
20260505112654 70 360 4.0 13.0 0.00 0.00 0.00 87 1008.0
20260505112533 70 360 4.0 13.0 0.00 0.00 0.00 87 1008.1
20260505112434 70 360 4.0 13.0 0.00 0.00 0.00 87 1008.2
20260505112334 70 360 4.0 15.0 0.00 0.00 0.00 87 1008.2
20260505112235 70 360 3.0 15.0 0.00 0.00 0.00 87 1008.2
20260505112119 70 360 4.0 15.0 0.00 0.00 0.00 87 1008.3
20260505112019 70 360 3.0 15.0 0.00 0.00 0.00 87 1008.3
20260505111919 70 360 3.0 15.0 0.00 0.00 0.00 87 1008.2
20260505111820 70 360 4.0 15.0 0.00 0.00 0.00 87 1008.1
20260505111721 70 360 5.0 15.0 0.00 0.00 0.00 87 1008.1
20260505111621 70 360 5.0 14.0 0.00 0.00 0.00 87 1008.1
20260505111522 70 360 4.0 14.0 0.00 0.00 0.00 87 1008.1
20260505111426 70 360 4.0 14.0 0.00 0.00 0.00 87 1008.1
20260505111327 70 360 4.0 14.0 0.00 0.00 0.00 87 1008.2
20260505111228 70 360 4.0 14.0 0.00 0.00 0.00 87 1008.1
20260505111128 70 360 4.0 14.0 0.00 0.00 0.00 87 1008.1
20260505111029 70 360 5.0 14.0 0.00 0.00 0.00 87 1008.2
20260505110930 70 360 5.0 14.0 0.00 0.00 0.00 87 1008.2
20260505110830 70 360 6.0 14.0 0.00 0.00 0.00 87 1008.3
20260505110735 70 360 7.0 14.0 0.00 0.00 0.00 87 1008.3
20260505110636 70 360 6.0 14.0 0.00 0.00 0.00 87 1008.3
20260505110535 70 360 7.0 14.0 0.00 0.00 0.00 87 1008.3
20260505110416 70 360 7.0 14.0 0.00 0.00 0.00 87 1008.4
20260505110317 70 360 7.0 14.0 0.00 0.00 0.00 87 1008.4
20260505110217 70 360 6.0 14.0 0.00 0.00 0.00 87 1008.4
20260505110122 70 360 6.0 12.0 0.00 0.00 0.00 87 1008.5
20260505102120 70 360 8.0 19.0 0.00 0.00 0.00 87 1008.5
20260505102024 70 360 8.0 19.0 0.00 0.00 0.00 87 1008.5
20260505101924 70 360 6.0 16.0 0.00 0.00 0.00 87 1008.5
20260505101845 70 360 6.0 16.0 0.00 0.00 0.00 87 1008.5
20260505101724 70 360 7.0 16.0 0.00 0.00 0.00 87 1008.4
20260505101644 70 360 7.0 16.0 0.00 0.00 0.00 87 1008.4
20260505101524 70 360 7.0 16.0 0.00 0.00 0.00 87 1008.5
20260505101424 70 360 7.0 25.0 0.00 0.00 0.00 87 1008.4
20260505101329 70 360 7.0 25.0 0.00 0.00 0.00 87 1008.4
20260505101229 70 360 9.0 25.0 0.00 0.00 0.00 87 1008.3
20260505101129 70 360 9.0 25.0 0.00 0.00 0.00 87 1008.4
20260505101031 70 360 7.0 25.0 0.00 0.00 0.00 87 1008.4
20260505100931 70 360 7.0 25.0 0.00 0.00 0.00 87 1008.4
20260505100831 70 360 8.0 25.0 0.00 0.00 0.00 87 1008.4
20260505100732 70 360 7.0 25.0 0.00 0.00 0.00 87 1008.5
20260505100657 70 360 7.0 25.0 0.00 0.00 0.00 87 1008.5
20260505100537 70 360 5.0 16.0 0.00 0.00 0.00 87 1008.6
20260505100456 70 360 5.0 16.0 0.00 0.00 0.00 87 1008.6
20260505100316 70 360 6.0 15.0 0.00 0.00 0.00 86 1008.5
20260505100217 70 360 6.0 14.0 0.00 0.00 0.00 86 1008.5
20260505100118 70 360 6.0 14.0 0.00 0.00 0.00 86 1008.5
20260505100019 70 360 6.0 14.0 0.00 0.00 0.00 86 1008.5
20260505095924 70 360 6.0 14.0 0.00 0.00 0.00 86 1008.5
20260505095826 70 360 6.0 14.0 0.00 0.00 0.00 86 1008.5
20260505095746 70 360 6.0 14.0 0.00 0.00 0.00 86 1008.5
20260505095626 70 360 5.0 13.0 0.00 0.00 0.00 86 1008.5
20260505095526 70 360 4.0 13.0 0.00 0.00 0.00 86 1008.6
20260505095427 70 360 4.0 16.0 0.00 0.00 0.00 86 1008.5
20260505095326 70 360 4.0 16.0 0.00 0.00 0.00 86 1008.5
20260505095232 70 360 4.0 16.0 0.00 0.00 0.00 86 1008.5
20260505095132 70 360 4.0 16.0 0.00 0.00 0.00 86 1008.4
20260505095033 70 360 4.0 16.0 0.00 0.00 0.00 86 1008.5
20260505094934 70 360 4.0 16.0 0.00 0.00 0.00 86 1008.5
20260505094834 70 360 4.0 16.0 0.00 0.00 0.00 86 1008.5
20260505094735 70 360 4.0 16.0 0.00 0.00 0.00 86 1008.4
20260505094656 70 360 4.0 18.0 0.00 0.00 0.00 86 1008.4
20260505094519 70 360 5.0 18.0 0.00 0.00 0.00 86 1008.4
20260505094419 70 360 6.0 18.0 0.00 0.00 0.00 86 1008.4
20260505094320 70 360 6.0 18.0 0.00 0.00 0.00 86 1008.3
20260505094221 70 360 6.0 18.0 0.00 0.00 0.00 86 1008.4
20260505094142 70 360 6.0 18.0 0.00 0.00 0.00 86 1008.4
20260505094022 70 360 6.0 18.0 0.00 0.00 0.00 86 1008.5
20260505093922 70 360 7.0 18.0 0.00 0.00 0.00 86 1008.5
20260505093827 70 360 6.0 18.0 0.00 0.00 0.00 86 1008.5
20260505093727 70 360 6.0 14.0 0.00 0.00 0.00 86 1008.5
20260505093648 70 360 6.0 17.0 0.00 0.00 0.00 86 1008.5
20260505093528 70 360 5.0 17.0 0.00 0.00 0.00 86 1008.6
20260505093427 70 360 6.0 17.0 0.00 0.00 0.00 86 1008.6
20260505093328 70 360 6.0 17.0 0.00 0.00 0.00 86 1008.6
20260505093230 70 360 6.0 17.0 0.00 0.00 0.00 86 1008.5
20260505093134 70 360 6.0 17.0 0.00 0.00 0.00 86 1008.6
20260505093034 70 360 7.0 17.0 0.00 0.00 0.00 86 1008.6
20260505092916 70 360 7.0 17.0 0.00 0.00 0.00 86 1008.4
20260505092818 70 360 7.0 15.0 0.00 0.00 0.00 86 1008.4
20260505092717 70 360 7.0 15.0 0.00 0.00 0.00 86 1008.4
20260505092616 70 360 6.0 15.0 0.00 0.00 0.00 86 1008.5
20260505092521 70 360 6.0 17.0 0.00 0.00 0.00 86 1008.6
20260505092422 70 360 6.0 17.0 0.00 0.00 0.00 86 1008.6
20260505092322 70 360 5.0 17.0 0.00 0.00 0.00 86 1008.6
20260505092221 70 360 5.0 17.0 0.00 0.00 0.00 86 1008.6
20260505092122 70 360 5.0 17.0 0.00 0.00 0.00 86 1008.6
20260505092043 70 360 5.0 16.0 0.00 0.00 0.00 86 1008.6
20260505091942 70 360 5.0 16.0 0.00 0.00 0.00 86 1008.6
20260505091823 70 360 5.0 16.0 0.00 0.00 0.00 86 1008.4
20260505091726 70 360 5.0 16.0 0.00 0.00 0.00 86 1008.4
20260505091627 70 360 5.0 16.0 0.00 0.00 0.00 86 1008.4
20260505091528 70 360 6.0 16.0 0.00 0.00 0.00 86 1008.4
20260505091429 70 360 6.0 16.0 0.00 0.00 0.00 86 1008.4
20260505091329 70 360 6.0 16.0 0.00 0.00 0.00 86 1008.4
20260505091229 70 360 6.0 16.0 0.00 0.00 0.00 86 1008.5
20260505091130 70 360 8.0 16.0 0.00 0.00 0.00 86 1008.5
20260505091035 70 360 8.0 21.0 0.00 0.00 0.00 86 1008.5
20260505090935 70 360 8.0 21.0 0.00 0.00 0.00 86 1008.4
20260505090836 70 360 8.0 21.0 0.00 0.00 0.00 86 1008.3
20260505090716 70 360 7.0 21.0 0.00 0.00 0.00 85 1008.4
20260505090616 70 360 6.0 21.0 0.00 0.00 0.00 85 1008.4
20260505090517 70 360 5.0 21.0 0.00 0.00 0.00 85 1008.4
20260505090422 70 360 6.0 21.0 0.00 0.00 0.00 85 1008.6
20260505090322 70 360 6.0 21.0 0.00 0.00 0.00 86 1008.5
20260505090223 70 360 6.0 21.0 0.00 0.00 0.00 86 1008.5
20260505090123 70 360 6.0 21.0 0.00 0.00 0.00 86 1008.6
20260505090024 70 360 7.0 21.0 0.00 0.00 0.00 86 1008.7
20260505085924 70 360 7.0 20.0 0.00 0.00 0.00 86 1008.6
20260505085824 70 360 7.0 20.0 0.00 0.00 0.00 86 1008.7
20260505085729 70 360 6.0 14.0 0.00 0.00 0.00 86 1008.7
20260505085649 70 360 6.0 17.0 0.00 0.00 0.00 86 1008.7
20260505085528 70 360 7.0 17.0 0.00 0.00 0.00 86 1008.7
20260505085429 70 360 8.0 17.0 0.00 0.00 0.00 86 1008.6
20260505085330 70 360 8.0 17.0 0.00 0.00 0.00 86 1008.6
20260505085249 70 360 8.0 17.0 0.00 0.00 0.00 86 1008.6
20260505085128 70 360 8.0 17.0 0.00 0.00 0.00 86 1008.6
20260505085029 70 360 8.0 17.0 0.00 0.00 0.00 86 1008.7
20260505084934 70 360 8.0 17.0 0.00 0.00 0.00 85 1008.8
20260505084854 70 360 7.0 16.0 0.00 0.00 0.00 85 1008.7
20260505084755 70 360 6.0 21.0 0.00 0.00 0.00 85 1008.8
20260505084634 70 360 6.0 21.0 0.00 0.00 0.00 85 1008.8
20260505084516 70 360 6.0 21.0 0.00 0.00 0.00 85 1008.8
20260505084417 70 360 7.0 21.0 0.00 0.00 0.00 85 1008.7
20260505084317 70 360 7.0 21.0 0.00 0.00 0.00 85 1008.7
20260505084222 70 360 8.0 21.0 0.00 0.00 0.00 85 1008.6
20260505084142 70 360 8.0 21.0 0.00 0.00 0.00 85 1008.6
20260505084022 70 360 8.0 21.0 0.00 0.00 0.00 85 1008.6
20260505083939 70 360 8.0 20.0 0.00 0.00 0.00 85 1008.7
20260505083839 70 360 8.0 20.0 0.00 0.00 0.00 85 1008.6
20260505083720 70 360 7.0 18.0 0.00 0.00 0.00 85 1008.6
20260505083619 70 360 7.0 24.0 0.00 0.00 0.00 85 1008.7
20260505083540 70 360 6.0 24.0 0.00 0.00 0.00 85 1008.5
20260505083424 70 360 6.0 24.0 0.00 0.00 0.00 85 1008.6
20260505083324 70 360 6.0 24.0 0.00 0.00 0.00 85 1008.6
20260505083225 70 360 6.0 24.0 0.00 0.00 0.00 85 1008.6
20260505083125 70 360 7.0 24.0 0.00 0.00 0.00 85 1008.7
20260505083025 70 360 8.0 24.0 0.00 0.00 0.00 85 1008.7
20260505082926 70 360 8.0 24.0 0.00 0.00 0.00 85 1008.8
20260505082826 70 360 8.0 24.0 0.00 0.00 0.00 86 1008.8
20260505082752 70 360 9.0 24.0 0.00 0.00 0.00 86 1008.9
20260505082631 70 360 9.0 24.0 0.00 0.00 0.00 86 1008.9
20260505082551 70 360 9.0 24.0 0.00 0.00 0.00 86 1008.9
20260505082430 70 360 8.0 23.0 0.00 0.00 0.00 86 1008.9
20260505082330 70 360 8.0 23.0 0.00 0.00 0.00 86 1008.9
20260505082251 70 360 8.0 23.0 0.00 0.00 0.00 86 1009.0
20260505082130 70 360 8.0 23.0 0.00 0.00 0.00 86 1009.0
20260505082031 70 360 8.0 22.0 0.00 0.00 0.00 86 1009.0
20260505081916 70 360 6.0 22.0 0.00 0.00 0.00 86 1009.1
20260505081835 70 360 7.0 22.0 0.00 0.00 0.00 86 1009.1
20260505081716 70 360 7.0 22.0 0.00 0.00 0.00 86 1009.1
20260505081617 70 360 6.0 22.0 0.00 0.00 0.00 86 1009.1
20260505081517 70 360 5.0 22.0 0.00 0.00 0.00 86 1009.1
20260505081418 70 360 5.0 22.0 0.00 0.00 0.00 86 1009.2
20260505081322 70 360 6.0 22.0 0.00 0.00 0.00 86 1009.2
20260505081222 70 360 6.0 22.0 0.00 0.00 0.00 86 1009.1
20260505081142 70 360 6.0 18.0 0.00 0.00 0.00 86 1009.1
20260505081042 70 360 6.0 18.0 0.00 0.00 0.00 86 1009.2
20260505080921 70 360 6.0 18.0 0.00 0.00 0.00 86 1009.2
20260505080821 70 360 6.0 18.0 0.00 0.00 0.00 86 1009.1
20260505080723 70 360 7.0 20.0 0.00 0.00 0.00 86 1009.2
20260505080628 70 360 6.0 20.0 0.00 0.00 0.00 86 1009.2
20260505080528 70 360 5.0 20.0 0.00 0.00 0.00 86 1009.1
20260505080449 70 360 5.0 20.0 0.00 0.00 0.00 86 1009.1
20260505080328 70 360 4.0 20.0 0.00 0.00 0.00 86 1009.2
20260505080229 70 360 5.0 20.0 0.00 0.00 0.00 86 1009.2
20260505080130 70 360 5.0 20.0 0.00 0.00 0.00 86 1009.2
20260505080028 70 360 5.0 20.0 0.00 0.00 0.00 86 1009.2
20260505075929 70 360 5.0 20.0 0.00 0.00 0.00 86 1009.3
20260505075833 70 360 6.0 20.0 0.00 0.00 0.00 86 1009.2
20260505075735 70 360 6.0 20.0 0.00 0.00 0.00 86 1009.2
20260505075634 70 360 6.0 20.0 0.00 0.00 0.00 86 1009.3
20260505075535 70 360 7.0 20.0 0.00 0.00 0.00 86 1009.3
20260505075435 70 360 7.0 20.0 0.00 0.00 0.00 85 1009.3
20260505075336 70 360 8.0 24.0 0.00 0.00 0.00 85 1009.2
20260505075220 70 360 8.0 24.0 0.00 0.00 0.00 85 1009.2
20260505075121 70 360 8.0 24.0 0.00 0.00 0.00 85 1009.4
20260505075022 70 360 8.0 24.0 0.00 0.00 0.00 85 1009.2
20260505074941 70 360 8.0 24.0 0.00 0.00 0.00 85 1009.3
20260505074821 70 360 8.0 24.0 0.00 0.00 0.00 85 1009.4
20260505074719 70 360 7.0 24.0 0.00 0.00 0.00 85 1009.5
20260505074619 70 360 6.0 24.0 0.00 0.00 0.00 85 1009.5
20260505074520 70 360 7.0 24.0 0.00 0.00 0.00 85 1009.5
20260505074424 70 360 7.0 24.0 0.00 0.00 0.00 85 1009.5
20260505074325 70 360 7.0 24.0 0.00 0.00 0.00 85 1009.5
20260505074225 70 360 7.0 24.0 0.00 0.00 0.00 85 1009.4
20260505074126 70 360 7.0 24.0 0.00 0.00 0.00 85 1009.3
20260505074046 70 360 8.0 24.0 0.00 0.00 0.00 85 1009.5
20260505073926 70 360 7.0 24.0 0.00 0.00 0.00 85 1009.5
20260505073825 70 360 7.0 24.0 0.00 0.00 0.00 85 1009.4
20260505073750 70 360 7.0 21.0 0.00 0.00 0.00 85 1009.4
20260505073711 70 360 7.0 19.0 0.00 0.00 0.00 85 1009.3
20260505073631 70 360 7.0 19.0 0.00 0.00 0.00 85 1009.5
20260505073510 70 360 6.0 19.0 0.00 0.00 0.00 85 1009.4
20260505073430 70 360 7.0 19.0 0.00 0.00 0.00 85 1009.5
20260505073313 70 360 7.0 19.0 0.00 0.00 0.00 85 1009.4
20260505073158 70 360 7.0 19.0 0.00 0.00 0.00 85 1009.5
20260505073022 70 360 7.0 19.0 0.00 0.00 0.00 85 1009.5
20260505072923 70 360 7.0 19.0 0.00 0.00 0.00 85 1009.4
20260505072824 70 360 7.0 19.0 0.00 0.00 0.00 85 1009.4
20260505072730 70 360 6.0 19.0 0.00 0.00 0.00 85 1009.4
20260505072629 70 360 6.0 19.0 0.00 0.00 0.00 84 1009.5
20260505072529 70 360 6.0 19.0 0.00 0.00 0.00 84 1009.5
20260505072429 70 360 5.0 19.0 0.00 0.00 0.00 84 1009.5
20260505072331 70 360 5.0 19.0 0.00 0.00 0.00 84 1009.4
20260505072230 70 360 6.0 19.0 0.00 0.00 0.00 84 1009.6
20260505072131 70 360 7.0 19.0 0.00 0.00 0.00 84 1009.6
20260505072016 70 360 7.0 19.0 0.00 0.00 0.00 84 1009.6
20260505071918 70 360 7.0 19.0 0.00 0.00 0.00 84 1009.7
20260505071819 70 360 7.0 19.0 0.00 0.00 0.00 84 1009.7
20260505071719 70 360 7.0 19.0 0.00 0.00 0.00 84 1009.7
20260505071619 70 360 6.0 17.0 0.00 0.00 0.00 84 1009.6
20260505071540 70 360 4.0 17.0 0.00 0.00 0.00 84 1009.6
20260505071424 70 360 4.0 18.0 0.00 0.00 0.00 84 1009.7
20260505071326 70 360 5.0 18.0 0.00 0.00 0.00 84 1009.7
20260505071225 70 360 5.0 18.0 0.00 0.00 0.00 84 1009.7
20260505071126 70 360 5.0 21.0 0.00 0.00 0.00 84 1009.7
20260505071026 70 360 5.0 21.0 0.00 0.00 0.00 84 1009.7
20260505070947 70 360 6.0 21.0 0.00 0.00 0.00 84 1009.7
20260505070826 70 360 7.0 21.0 0.00 0.00 0.00 84 1009.7
20260505070731 70 360 7.0 21.0 0.00 0.00 0.00 84 1009.8
20260505070632 70 360 7.0 21.0 0.00 0.00 0.00 84 1009.8
20260505070533 70 360 7.0 21.0 0.00 0.00 0.00 84 1009.8
20260505070434 70 360 8.0 21.0 0.00 0.00 0.00 84 1009.7
20260505070335 70 360 7.0 21.0 0.00 0.00 0.00 84 1009.7
20260505070235 70 360 7.0 21.0 0.00 0.00 0.00 84 1009.7
20260505070120 70 360 7.0 21.0 0.00 0.00 0.00 84 1009.8
20260505070019 71 360 8.0 21.0 0.00 0.00 0.00 84 1009.8
20260505065940 71 360 7.0 21.0 0.00 0.00 0.00 84 1009.8
20260505065823 71 360 7.0 21.0 0.00 0.00 0.00 84 1009.8
20260505065723 71 360 8.0 21.0 0.00 0.00 0.00 84 1009.8
20260505065623 71 360 8.0 21.0 0.00 0.00 0.00 84 1009.9
20260505065523 71 360 9.0 21.0 0.00 0.00 0.00 84 1009.8
20260505065421 71 360 8.0 21.0 0.00 0.00 0.00 84 1009.9
20260505065322 71 360 9.0 21.0 0.00 0.00 0.00 84 1009.9
20260505065226 71 360 9.0 21.0 0.00 0.00 0.00 84 1009.9
20260505065126 71 360 8.0 21.0 0.00 0.00 0.00 84 1009.9
20260505065047 71 360 8.0 21.0 0.00 0.00 0.00 84 1009.9
20260505064927 70 360 6.0 19.0 0.00 0.00 0.00 84 1009.9
20260505064846 70 360 7.0 19.0 0.00 0.00 0.00 84 1009.9
20260505064746 71 360 7.0 19.0 0.00 0.00 0.00 84 1010.0
20260505064626 71 360 7.0 19.0 0.00 0.00 0.00 84 1010.0
20260505064545 71 360 6.0 19.0 0.00 0.00 0.00 84 1010.0
20260505064429 71 360 5.0 17.0 0.00 0.00 0.00 84 1010.0
20260505064350 71 360 6.0 17.0 0.00 0.00 0.00 84 1010.0
20260505064229 71 360 5.0 17.0 0.00 0.00 0.00 84 1010.0
20260505064131 71 360 5.0 17.0 0.00 0.00 0.00 84 1010.0
20260505064030 71 360 6.0 19.0 0.00 0.00 0.00 84 1010.1
20260505063931 71 360 6.0 19.0 0.00 0.00 0.00 84 1010.1
20260505063830 71 360 6.0 19.0 0.00 0.00 0.00 84 1010.1
20260505063731 71 360 5.0 19.0 0.00 0.00 0.00 84 1010.1
20260505063634 71 360 6.0 19.0 0.00 0.00 0.00 84 1010.1
20260505063555 71 360 6.0 19.0 0.00 0.00 0.00 84 1010.2
20260505063435 71 360 6.0 19.0 0.00 0.00 0.00 84 1010.1
20260505063335 71 360 7.0 19.0 0.00 0.00 0.00 84 1010.1
20260505063235 71 360 9.0 19.0 0.00 0.00 0.00 84 1010.2
20260505063116 71 360 9.0 19.0 0.00 0.00 0.00 84 1010.1
20260505063021 71 360 9.0 19.0 0.00 0.00 0.00 84 1010.2
20260505062941 71 360 8.0 19.0 0.00 0.00 0.00 84 1010.2
20260505062821 71 360 6.0 19.0 0.00 0.00 0.00 84 1010.3
20260505062721 71 360 8.0 25.0 0.00 0.00 0.00 84 1010.3
20260505062620 71 360 8.0 25.0 0.00 0.00 0.00 84 1010.3
20260505062521 71 360 7.0 25.0 0.00 0.00 0.00 84 1010.3
20260505062422 71 360 7.0 25.0 0.00 0.00 0.00 84 1010.4
20260505062323 71 360 7.0 25.0 0.00 0.00 0.00 84 1010.3
20260505062228 71 360 8.0 25.0 0.00 0.00 0.00 84 1010.3
20260505062129 71 360 7.0 25.0 0.00 0.00 0.00 84 1010.3
20260505062030 71 360 6.0 25.0 0.00 0.00 0.00 84 1010.3
20260505061950 71 360 6.0 25.0 0.00 0.00 0.00 84 1010.4
20260505061829 71 360 7.0 25.0 0.00 0.00 0.00 84 1010.4
20260505061730 71 360 7.0 25.0 0.00 0.00 0.00 84 1010.4
20260505061630 71 360 8.0 25.0 0.00 0.00 0.00 84 1010.4
20260505061535 71 360 8.0 25.0 0.00 0.00 0.00 84 1010.4
20260505061435 70 360 8.0 25.0 0.00 0.00 0.00 84 1010.4
20260505061335 71 360 8.0 25.0 0.00 0.00 0.00 84 1010.4
20260505061235 71 360 8.0 18.0 0.00 0.00 0.00 84 1010.4
20260505061136 71 360 8.0 18.0 0.00 0.00 0.00 84 1010.4
20260505061056 71 360 8.0 18.0 0.00 0.00 0.00 84 1010.4
20260505060921 71 360 7.0 18.0 0.00 0.00 0.00 84 1010.4
20260505060822 71 360 6.0 18.0 0.00 0.00 0.00 84 1010.3
20260505060742 71 360 6.0 18.0 0.00 0.00 0.00 84 1010.4
20260505060622 71 360 5.0 21.0 0.00 0.00 0.00 84 1010.4
20260505060522 71 360 5.0 21.0 0.00 0.00 0.00 84 1010.4
20260505060422 71 360 5.0 21.0 0.00 0.00 0.00 84 1010.4
20260505060322 71 360 7.0 21.0 0.00 0.00 0.00 84 1010.4
20260505060226 71 360 7.0 24.0 0.00 0.00 0.00 84 1010.4
20260505060147 71 360 7.0 24.0 0.00 0.00 0.00 84 1010.4
20260505060027 71 360 8.0 24.0 0.00 0.00 0.00 84 1010.4
20260505055927 71 360 9.0 24.0 0.00 0.00 0.00 84 1010.5
20260505055829 71 360 9.0 24.0 0.00 0.00 0.00 84 1010.4
20260505055729 71 360 9.0 24.0 0.00 0.00 0.00 84 1010.5
20260505055626 71 360 8.0 28.0 0.00 0.00 0.00 84 1010.4
20260505055532 71 360 8.0 28.0 0.00 0.00 0.00 84 1010.4
20260505055432 71 360 8.0 28.0 0.00 0.00 0.00 84 1010.4
20260505055332 71 360 9.0 28.0 0.00 0.00 0.00 84 1010.3
20260505055232 71 360 9.0 28.0 0.00 0.00 0.00 84 1010.3
20260505055133 71 360 10.0 28.0 0.00 0.00 0.00 84 1010.3
20260505055034 71 360 11.0 28.0 0.00 0.00 0.00 84 1010.3
20260505054933 71 360 10.0 28.0 0.00 0.00 0.00 84 1010.4
20260505054818 71 360 9.0 25.0 0.00 0.00 0.00 84 1010.3
20260505054718 71 360 9.0 25.0 0.00 0.00 0.00 84 1010.3
20260505054619 71 360 9.0 25.0 0.00 0.00 0.00 84 1010.3
20260505054519 71 360 9.0 25.0 0.00 0.00 0.00 84 1010.3
20260505054419 71 360 9.0 25.0 0.00 0.00 0.00 84 1010.4
20260505054320 71 360 9.0 32.0 0.00 0.00 0.00 84 1010.3
20260505054221 71 360 10.0 32.0 0.00 0.00 0.00 84 1010.3
20260505054126 71 360 10.0 32.0 0.00 0.00 0.00 84 1010.3
20260505054026 71 360 11.0 32.0 0.00 0.00 0.00 84 1010.4
20260505053947 71 360 9.0 32.0 0.00 0.00 0.00 84 1010.4
20260505053825 71 360 9.0 32.0 0.00 0.00 0.00 84 1010.4
20260505053747 71 360 9.0 32.0 0.00 0.00 0.00 84 1010.5
20260505053627 71 360 9.0 32.0 0.00 0.00 0.00 84 1010.5
20260505053526 71 360 10.0 32.0 0.00 0.00 0.00 84 1010.5
20260505053431 71 360 11.0 32.0 0.00 0.00 0.00 84 1010.4
20260505053352 71 360 11.0 32.0 0.00 0.00 0.00 84 1010.4
20260505053232 71 360 11.0 32.0 0.00 0.00 0.00 84 1010.4
20260505053133 71 360 10.0 25.0 0.00 0.00 0.00 84 1010.3
20260505053033 71 360 11.0 25.0 0.00 0.00 0.00 84 1010.3
20260505052934 71 360 10.0 21.0 0.00 0.00 0.00 84 1010.2
20260505052836 71 360 10.0 21.0 0.00 0.00 0.00 84 1010.3
20260505052720 71 360 10.0 21.0 0.00 0.00 0.00 84 1010.3
20260505052619 71 360 10.0 21.0 0.00 0.00 0.00 84 1010.3
20260505052520 71 360 10.0 21.0 0.00 0.00 0.00 84 1010.3
20260505052441 71 360 9.0 21.0 0.00 0.00 0.00 84 1010.3
20260505052321 71 360 9.0 21.0 0.00 0.00 0.00 84 1010.3
20260505052221 71 360 7.0 21.0 0.00 0.00 0.00 84 1010.3
20260505052121 71 360 8.0 21.0 0.00 0.00 0.00 84 1010.3
20260505052026 71 360 7.0 21.0 0.00 0.00 0.00 84 1010.3
20260505051926 71 360 8.0 21.0 0.00 0.00 0.00 84 1010.3
20260505051827 71 360 8.0 21.0 0.00 0.00 0.00 84 1010.3
20260505051726 71 360 8.0 21.0 0.00 0.00 0.00 84 1010.4
20260505051628 71 360 8.0 21.0 0.00 0.00 0.00 84 1010.3
20260505051528 71 360 8.0 17.0 0.00 0.00 0.00 84 1010.4
20260505051449 71 360 8.0 17.0 0.00 0.00 0.00 84 1010.4
20260505051332 71 360 7.0 19.0 0.00 0.00 0.00 84 1010.4
20260505051232 71 360 8.0 19.0 0.00 0.00 0.00 84 1010.3
20260505051134 71 360 8.0 19.0 0.00 0.00 0.00 84 1010.4
20260505051034 71 360 8.0 19.0 0.00 0.00 0.00 84 1010.3
20260505050934 71 360 9.0 19.0 0.00 0.00 0.00 84 1010.3
20260505050835 71 360 9.0 19.0 0.00 0.00 0.00 84 1010.4
20260505050719 71 360 9.0 16.0 0.00 0.00 0.00 84 1010.3
20260505050620 71 360 9.0 16.0 0.00 0.00 0.00 84 1010.2
20260505050539 71 360 8.0 16.0 0.00 0.00 0.00 84 1010.2
20260505050419 71 360 7.0 16.0 0.00 0.00 0.00 84 1010.2
20260505050319 71 360 6.0 16.0 0.00 0.00 0.00 84 1010.2
20260505050240 71 360 6.0 16.0 0.00 0.00 0.00 84 1010.3
20260505050120 71 360 6.0 16.0 0.00 0.00 0.00 83 1010.4
20260505041727 72 360 9.0 19.0 0.00 0.00 0.00 82 1010.2
20260505041651 72 360 10.0 19.0 0.00 0.00 0.00 82 1010.2
20260505041532 72 360 10.0 19.0 0.00 0.00 0.00 82 1010.2
20260505041432 72 360 11.0 19.0 0.00 0.00 0.00 81 1010.3
20260505041333 72 360 10.0 19.0 0.00 0.00 0.00 81 1010.2
20260505041253 72 360 9.0 19.0 0.00 0.00 0.00 81 1010.2
20260505041132 72 360 10.0 19.0 0.00 0.00 0.00 81 1010.2
20260505041032 72 360 10.0 19.0 0.00 0.00 0.00 81 1010.2
20260505040917 72 360 10.0 22.0 0.00 0.00 0.00 81 1010.2
20260505040818 72 360 10.0 22.0 0.00 0.00 0.00 81 1010.2
20260505040718 72 360 10.0 22.0 0.00 0.00 0.00 81 1010.2
20260505040618 72 360 11.0 22.0 0.00 0.00 0.00 81 1010.2
20260505040519 72 360 11.0 19.0 0.00 0.00 0.00 81 1010.3
20260505040439 72 360 11.0 19.0 0.00 0.00 0.00 81 1010.2
20260505040319 72 360 11.0 19.0 0.00 0.00 0.00 81 1010.3
20260505040238 72 360 11.0 19.0 0.00 0.00 0.00 81 1010.3
20260505040122 72 360 11.0 19.0 0.00 0.00 0.00 81 1010.3
20260505040023 73 360 11.0 19.0 0.00 0.00 0.00 81 1010.3
20260505035924 73 360 10.0 24.0 0.00 0.00 0.00 81 1010.2
20260505035825 73 360 11.0 24.0 0.00 0.00 0.00 81 1010.2
20260505035724 73 360 12.0 24.0 0.00 0.00 0.00 81 1010.3
20260505035625 73 360 12.0 24.0 0.00 0.00 0.00 80 1010.2
20260505035529 73 360 13.0 24.0 0.00 0.00 0.00 80 1010.2
20260505035430 73 360 13.0 24.0 0.00 0.00 0.00 80 1010.3
20260505035330 73 360 13.0 24.0 0.00 0.00 0.00 80 1010.3
20260505035250 73 360 13.0 24.0 0.00 0.00 0.00 80 1010.4
20260505035130 73 360 13.0 24.0 0.00 0.00 0.00 80 1010.3
20260505035051 73 360 13.0 24.0 0.00 0.00 0.00 80 1010.3
20260505034930 73 360 12.0 20.0 0.00 0.00 0.00 80 1010.3
20260505034831 73 360 11.0 20.0 0.00 0.00 0.00 80 1010.3
20260505034716 73 360 10.0 18.0 0.00 0.00 0.00 80 1010.2
20260505034636 73 360 10.0 18.0 0.00 0.00 0.00 80 1010.2
20260505034534 73 360 10.0 20.0 0.00 0.00 0.00 80 1010.2
20260505034455 73 360 10.0 20.0 0.00 0.00 0.00 80 1010.3
20260505034336 73 360 11.0 20.0 0.00 0.00 0.00 80 1010.3
20260505034235 73 360 12.0 20.0 0.00 0.00 0.00 80 1010.3
20260505034120 73 360 12.0 22.0 0.00 0.00 0.00 80 1010.2
20260505034020 73 360 12.0 22.0 0.00 0.00 0.00 80 1010.3
20260505033940 73 360 12.0 22.0 0.00 0.00 0.00 80 1010.2
20260505033820 73 360 13.0 22.0 0.00 0.00 0.00 80 1010.2
20260505033721 73 360 12.0 22.0 0.00 0.00 0.00 80 1010.2
20260505033622 73 360 11.0 22.0 0.00 0.00 0.00 80 1010.3
20260505033522 73 360 10.0 22.0 0.00 0.00 0.00 80 1010.3
20260505033427 73 360 10.0 22.0 0.00 0.00 0.00 80 1010.3
20260505033328 73 360 10.0 22.0 0.00 0.00 0.00 80 1010.3
20260505033228 73 360 9.0 22.0 0.00 0.00 0.00 80 1010.2
20260505033130 73 360 9.0 22.0 0.00 0.00 0.00 80 1010.3
20260505033030 73 360 9.0 22.0 0.00 0.00 0.00 80 1010.3
20260505032930 73 360 9.0 22.0 0.00 0.00 0.00 80 1010.3
20260505032831 73 360 8.0 18.0 0.00 0.00 0.00 79 1010.4
20260505032736 73 360 8.0 18.0 0.00 0.00 0.00 79 1010.4
20260505032635 73 360 9.0 18.0 0.00 0.00 0.00 79 1010.3
20260505032517 73 360 9.0 18.0 0.00 0.00 0.00 79 1010.4
20260505032417 73 360 9.0 20.0 0.00 0.00 0.00 79 1010.3
20260505032318 73 360 9.0 20.0 0.00 0.00 0.00 79 1010.4
20260505032218 73 360 10.0 20.0 0.00 0.00 0.00 79 1010.3
20260505032122 73 360 10.0 20.0 0.00 0.00 0.00 79 1010.3
20260505032022 73 360 11.0 20.0 0.00 0.00 0.00 79 1010.3
20260505031923 73 360 10.0 20.0 0.00 0.00 0.00 79 1010.2
20260505031824 73 360 9.0 20.0 0.00 0.00 0.00 79 1010.2
20260505031726 74 360 9.0 20.0 0.00 0.00 0.00 79 1010.2
20260505031626 74 360 9.0 20.0 0.00 0.00 0.00 79 1010.2
20260505031546 74 360 9.0 20.0 0.00 0.00 0.00 79 1010.2
20260505031430 74 360 9.0 20.0 0.00 0.00 0.00 79 1010.2
20260505031351 74 360 9.0 20.0 0.00 0.00 0.00 79 1010.2
20260505031230 74 360 8.0 20.0 0.00 0.00 0.00 79 1010.3
20260505031130 74 360 9.0 18.0 0.00 0.00 0.00 79 1010.2
20260505031029 74 360 10.0 18.0 0.00 0.00 0.00 79 1010.3
20260505030930 74 360 9.0 18.0 0.00 0.00 0.00 79 1010.3
20260505030830 74 360 9.0 18.0 0.00 0.00 0.00 79 1010.3
20260505030751 74 360 10.0 18.0 0.00 0.00 0.00 79 1010.3
20260505030654 74 360 9.0 18.0 0.00 0.00 0.00 79 1010.3
20260505030553 74 360 9.0 16.0 0.00 0.00 0.00 79 1010.3
20260505030433 74 360 9.0 16.0 0.00 0.00 0.00 79 1010.2
20260505030333 74 360 9.0 16.0 0.00 0.00 0.00 79 1010.3
20260505030234 74 360 8.0 15.0 0.00 0.00 0.00 79 1010.3
20260505030154 74 360 8.0 15.0 0.00 0.00 0.00 79 1010.3
20260505030033 74 360 7.0 14.0 0.00 0.00 0.00 79 1010.3
20260505025918 74 360 7.0 14.0 0.00 0.00 0.00 79 1010.2
20260505025819 74 360 7.0 14.0 0.00 0.00 0.00 78 1010.3
20260505025719 74 360 7.0 14.0 0.00 0.00 0.00 78 1010.2
20260505025639 74 360 7.0 15.0 0.00 0.00 0.00 78 1010.3
20260505025519 74 360 8.0 15.0 0.00 0.00 0.00 78 1010.4
20260505025441 74 360 8.0 15.0 0.00 0.00 0.00 78 1010.4
20260505025319 74 360 8.0 15.0 0.00 0.00 0.00 78 1010.4
20260505025220 74 360 7.0 15.0 0.00 0.00 0.00 78 1010.4
20260505025124 74 360 8.0 15.0 0.00 0.00 0.00 78 1010.3
20260505025025 74 360 8.0 15.0 0.00 0.00 0.00 78 1010.3
20260505024925 74 360 8.0 15.0 0.00 0.00 0.00 78 1010.3
20260505024826 74 360 7.0 16.0 0.00 0.00 0.00 78 1010.3
20260505024725 74 360 7.0 16.0 0.00 0.00 0.00 78 1010.2
20260505024646 74 360 6.0 16.0 0.00 0.00 0.00 78 1010.3
20260505024526 74 360 6.0 16.0 0.00 0.00 0.00 78 1010.3
20260505024430 74 360 6.0 16.0 0.00 0.00 0.00 77 1010.3
20260505024331 74 360 6.0 16.0 0.00 0.00 0.00 77 1010.2
20260505024231 74 360 6.0 16.0 0.00 0.00 0.00 77 1010.3
20260505024131 74 360 6.0 16.0 0.00 0.00 0.00 77 1010.3
20260505024052 74 360 6.0 16.0 0.00 0.00 0.00 77 1010.3
20260505023932 74 360 6.0 16.0 0.00 0.00 0.00 77 1010.3
20260505023816 74 360 6.0 13.0 0.00 0.00 0.00 77 1010.3
20260505023717 74 360 7.0 13.0 0.00 0.00 0.00 77 1010.3
20260505023617 74 360 7.0 13.0 0.00 0.00 0.00 77 1010.3
20260505023518 75 360 7.0 13.0 0.00 0.00 0.00 77 1010.3
20260505023419 74 360 7.0 13.0 0.00 0.00 0.00 77 1010.3
20260505023339 75 360 7.0 13.0 0.00 0.00 0.00 77 1010.3
20260505023238 75 360 7.0 13.0 0.00 0.00 0.00 77 1010.3
20260505023119 75 360 8.0 13.0 0.00 0.00 0.00 77 1010.3
20260505023024 75 360 8.0 13.0 0.00 0.00 0.00 77 1010.3
20260505022924 75 360 7.0 13.0 0.00 0.00 0.00 77 1010.3
20260505022825 75 360 6.0 13.0 0.00 0.00 0.00 77 1010.2
20260505022724 75 360 7.0 13.0 0.00 0.00 0.00 77 1010.2
20260505022625 75 360 7.0 13.0 0.00 0.00 0.00 77 1010.1
20260505022525 75 360 6.0 13.0 0.00 0.00 0.00 77 1010.3
20260505022430 75 360 6.0 13.0 0.00 0.00 0.00 76 1010.3
20260505022331 75 360 6.0 13.0 0.00 0.00 0.00 76 1010.2
20260505022232 75 360 7.0 13.0 0.00 0.00 0.00 76 1010.2
20260505022132 75 360 7.0 13.0 0.00 0.00 0.00 76 1010.2
20260505022032 75 360 7.0 13.0 0.00 0.00 0.00 76 1010.2
20260505021933 75 360 7.0 13.0 0.00 0.00 0.00 76 1010.2
20260505021819 75 360 8.0 13.0 0.00 0.00 0.00 76 1010.2
20260505021720 75 360 8.0 13.0 0.00 0.00 0.00 76 1010.1
20260505021621 75 360 7.0 13.0 0.00 0.00 0.00 76 1010.2
20260505021543 75 360 7.0 13.0 0.00 0.00 0.00 76 1010.2
20260505021416 75 360 7.0 13.0 0.00 0.00 0.00 76 1010.1
20260505021316 75 360 7.0 13.0 0.00 0.00 0.00 75 1010.2
20260505021216 75 360 7.0 13.0 0.00 0.00 0.00 75 1010.2
20260505021121 75 360 7.0 13.0 0.00 0.00 0.00 75 1010.2
20260505021021 75 360 7.0 13.0 0.00 0.00 0.00 75 1010.2
20260505020921 75 360 6.0 13.0 0.00 0.00 0.00 75 1010.2
20260505020823 75 360 6.0 13.0 0.00 0.00 0.00 75 1010.2
20260505020724 75 360 7.0 13.0 0.00 0.00 0.00 75 1010.1
20260505020645 75 360 7.0 13.0 0.00 0.00 0.00 74 1010.2
20260505020524 75 360 7.0 13.0 0.00 0.00 0.00 74 1010.1
20260505020429 75 360 7.0 13.0 0.00 0.00 0.00 74 1010.1
20260505020349 75 360 7.0 13.0 0.00 0.00 0.00 74 1010.1
20260505020229 75 360 7.0 13.0 0.00 0.00 0.00 74 1010.1
20260505020129 75 360 7.0 13.0 0.00 0.00 0.00 73 1010.2
20260505020031 75 360 7.0 13.0 0.00 0.00 0.00 73 1010.1
20260505015951 76 360 7.0 13.0 0.00 0.00 0.00 73 1010.1
20260505015830 76 360 6.0 13.0 0.00 0.00 0.00 73 1010.1
20260505015731 76 360 6.0 13.0 0.00 0.00 0.00 73 1010.1
20260505015630 76 360 5.0 12.0 0.00 0.00 0.00 73 1010.0
20260505015555 76 360 5.0 12.0 0.00 0.00 0.00 72 1010.0
20260505015453 76 360 5.0 15.0 0.00 0.00 0.00 72 1010.0
20260505015333 76 360 5.0 15.0 0.00 0.00 0.00 72 1010.0
20260505015234 76 360 4.0 15.0 0.00 0.00 0.00 72 1010.0
20260505015154 76 360 4.0 15.0 0.00 0.00 0.00 72 1010.1
20260505015034 76 360 5.0 15.0 0.00 0.00 0.00 72 1010.0
20260505014933 76 360 5.0 15.0 0.00 0.00 0.00 72 1010.1
20260505014818 76 360 6.0 15.0 0.00 0.00 0.00 72 1010.1
20260505014718 76 360 6.0 15.0 0.00 0.00 0.00 72 1010.0
20260505014639 76 360 6.0 15.0 0.00 0.00 0.00 72 1010.1
20260505014437 76 360 7.0 15.0 0.00 0.00 0.00 72 1010.0
20260505014317 76 360 7.0 15.0 0.00 0.00 0.00 72 1009.9
20260505014237 76 360 7.0 15.0 0.00 0.00 0.00 72 1009.9
20260505014116 76 360 7.0 15.0 0.00 0.00 0.00 72 1009.9
20260505014016 76 360 7.0 15.0 0.00 0.00 0.00 71 1009.9
20260505013920 76 360 7.0 15.0 0.00 0.00 0.00 71 1010.0
20260505013821 76 360 6.0 14.0 0.00 0.00 0.00 71 1010.0
20260505013721 76 360 6.0 14.0 0.00 0.00 0.00 71 1009.9
20260505013622 76 360 5.0 13.0 0.00 0.00 0.00 71 1010.0
20260505013519 76 360 5.0 13.0 0.00 0.00 0.00 71 1010.0
20260505013439 76 360 6.0 13.0 0.00 0.00 0.00 71 1010.0
20260505013319 76 360 5.0 13.0 0.00 0.00 0.00 71 1010.0
20260505013224 76 360 6.0 13.0 0.00 0.00 0.00 71 1010.0
20260505013145 76 360 6.0 13.0 0.00 0.00 0.00 71 1009.9
20260505013020 76 360 6.0 13.0 0.00 0.00 0.00 71 1009.8
20260505012920 76 360 6.0 13.0 0.00 0.00 0.00 71 1009.8
20260505012822 76 360 7.0 13.0 0.00 0.00 0.00 71 1009.8
20260505012742 77 360 6.0 13.0 0.00 0.00 0.00 71 1009.9
20260505012621 77 360 6.0 13.0 0.00 0.00 0.00 70 1009.9
20260505012522 77 360 6.0 13.0 0.00 0.00 0.00 70 1009.9
20260505012426 77 360 6.0 13.0 0.00 0.00 0.00 70 1009.9
20260505012326 77 360 6.0 13.0 0.00 0.00 0.00 70 1009.9
20260505012246 77 360 5.0 13.0 0.00 0.00 0.00 70 1009.9
20260505012146 77 360 5.0 13.0 0.00 0.00 0.00 70 1009.9
20260505012023 77 360 4.0 12.0 0.00 0.00 0.00 70 1009.9
20260505011924 77 360 4.0 12.0 0.00 0.00 0.00 70 1009.9
20260505011845 77 360 4.0 12.0 0.00 0.00 0.00 70 1009.9
20260505011725 77 360 4.0 12.0 0.00 0.00 0.00 70 1010.0
20260505011645 77 360 4.0 12.0 0.00 0.00 0.00 70 1010.0
20260505011549 77 360 4.0 12.0 0.00 0.00 0.00 70 1010.0
20260505011428 77 360 5.0 19.0 0.00 0.00 0.00 69 1010.0
20260505011329 77 360 5.0 19.0 0.00 0.00 0.00 69 1009.9
20260505011249 77 360 5.0 19.0 0.00 0.00 0.00 69 1009.9
20260505011129 77 360 5.0 19.0 0.00 0.00 0.00 69 1009.9
20260505011030 77 360 6.0 19.0 0.00 0.00 0.00 69 1009.9
20260505010929 77 360 7.0 19.0 0.00 0.00 0.00 69 1009.9
20260505010834 77 360 8.0 19.0 0.00 0.00 0.00 69 1009.8
20260505010734 77 360 9.0 19.0 0.00 0.00 0.00 69 1009.8
20260505010635 77 360 9.0 19.0 0.00 0.00 0.00 69 1009.7
20260505010555 77 360 9.0 19.0 0.00 0.00 0.00 69 1009.7
20260505010434 77 360 9.0 20.0 0.00 0.00 0.00 69 1009.7
20260505010335 77 360 8.0 20.0 0.00 0.00 0.00 69 1009.8
20260505010216 77 360 7.0 20.0 0.00 0.00 0.00 69 1009.8
20260505010121 77 360 7.0 20.0 0.00 0.00 0.00 69 1009.8
20260505010020 77 360 8.0 20.0 0.00 0.00 0.00 68 1009.8
20260505005941 77 360 8.0 20.0 0.00 0.00 0.00 68 1009.8
20260505005822 77 360 8.0 20.0 0.00 0.00 0.00 68 1009.9
20260505005721 77 360 8.0 16.0 0.00 0.00 0.00 68 1009.8
20260505005639 77 360 8.0 16.0 0.00 0.00 0.00 68 1009.8
20260505005517 78 360 7.0 16.0 0.00 0.00 0.00 68 1009.8
20260505005418 78 360 7.0 16.0 0.00 0.00 0.00 68 1009.8
20260505005322 78 360 7.0 16.0 0.00 0.00 0.00 68 1009.8
20260505005223 78 360 7.0 16.0 0.00 0.00 0.00 68 1009.8
20260505005124 78 360 7.0 17.0 0.00 0.00 0.00 67 1009.8
20260505005024 78 360 7.0 17.0 0.00 0.00 0.00 67 1009.8
20260505004924 78 360 8.0 17.0 0.00 0.00 0.00 67 1009.8
20260505004825 78 360 9.0 17.0 0.00 0.00 0.00 67 1009.9
20260505004725 78 360 9.0 17.0 0.00 0.00 0.00 67 1009.8
20260505004628 78 360 10.0 20.0 0.00 0.00 0.00 67 1009.8
20260505004549 78 360 10.0 24.0 0.00 0.00 0.00 67 1009.8
20260505004427 78 360 9.0 24.0 0.00 0.00 0.00 67 1009.7
20260505004348 78 360 9.0 24.0 0.00 0.00 0.00 67 1009.7
20260505004249 78 360 10.0 24.0 0.00 0.00 0.00 66 1009.7
20260505004128 78 360 9.0 24.0 0.00 0.00 0.00 66 1009.8
20260505004028 78 360 10.0 24.0 0.00 0.00 0.00 66 1009.7
20260505003949 78 360 9.0 22.0 0.00 0.00 0.00 66 1009.7
20260505003827 78 360 8.0 22.0 0.00 0.00 0.00 66 1009.7
20260505003732 78 360 8.0 22.0 0.00 0.00 0.00 66 1009.7
20260505003632 78 360 8.0 22.0 0.00 0.00 0.00 66 1009.7
20260505003532 78 360 7.0 15.0 0.00 0.00 0.00 66 1009.7
20260505003432 78 360 6.0 15.0 0.00 0.00 0.00 66 1009.7
20260505003332 78 360 5.0 15.0 0.00 0.00 0.00 66 1009.7
20260505003233 79 360 4.0 15.0 0.00 0.00 0.00 66 1009.6
20260505003154 79 360 5.0 15.0 0.00 0.00 0.00 66 1009.6
20260505003018 79 360 5.0 15.0 0.00 0.00 0.00 65 1009.6
20260505002919 79 360 5.0 15.0 0.00 0.00 0.00 65 1009.6
20260505002820 79 360 4.0 18.0 0.00 0.00 0.00 65 1009.6
20260505002720 79 360 5.0 20.0 0.00 0.00 0.00 65 1009.6
20260505002620 79 360 6.0 20.0 0.00 0.00 0.00 65 1009.6
20260505002521 79 360 7.0 20.0 0.00 0.00 0.00 65 1009.6
20260505002425 79 360 9.0 20.0 0.00 0.00 0.00 65 1009.7
20260505002345 79 360 9.0 20.0 0.00 0.00 0.00 65 1009.6
20260505002225 79 360 9.0 20.0 0.00 0.00 0.00 64 1009.7
20260505002125 79 360 10.0 20.0 0.00 0.00 0.00 64 1009.6
20260505002026 79 360 9.0 20.0 0.00 0.00 0.00 64 1009.6
20260505001927 79 360 9.0 20.0 0.00 0.00 0.00 65 1009.6
20260505001827 79 360 8.0 20.0 0.00 0.00 0.00 65 1009.6
20260505001731 79 360 8.0 20.0 0.00 0.00 0.00 65 1009.5
20260505001632 79 360 7.0 21.0 0.00 0.00 0.00 64 1009.6
20260505001532 79 360 7.0 21.0 0.00 0.00 0.00 64 1009.5
20260505001433 79 360 7.0 22.0 0.00 0.00 0.00 64 1009.4
20260505001333 79 360 7.0 22.0 0.00 0.00 0.00 63 1009.4
20260505001234 79 360 7.0 22.0 0.00 0.00 0.00 63 1009.5
20260505001118 79 360 8.0 22.0 0.00 0.00 0.00 63 1009.6
20260505001019 79 360 7.0 22.0 0.00 0.00 0.00 63 1009.5
20260505000918 79 360 8.0 22.0 0.00 0.00 0.00 63 1009.6
20260505000820 79 360 8.0 22.0 0.00 0.00 0.00 63 1009.5
20260505000721 79 360 8.0 22.0 0.00 0.00 0.00 63 1009.6
20260505000621 79 360 8.0 22.0 0.00 0.00 0.00 63 1009.7
20260505000521 79 360 8.0 22.0 0.00 0.00 0.00 63 1009.6
20260505000428 79 360 7.0 22.0 0.00 0.00 0.00 63 1009.6
20260505000327 79 360 8.0 24.0 0.00 0.00 0.00 63 1009.7
20260505000227 79 360 8.0 24.0 0.00 0.00 0.00 63 1009.7
20260505000128 79 360 8.0 24.0 0.00 0.00 0.00 63 1009.8
20260505000047 79 360 6.0 24.0 0.00 0.00 0.00 62 1009.7
20260504235927 79 360 8.0 24.0 0.00 0.00 0.00 62 1009.7
20260504235827 79 360 9.0 24.0 0.00 0.00 0.00 62 1009.8
20260504235752 79 360 11.0 24.0 0.00 0.00 0.00 62 1009.8
20260504235631 80 360 11.0 24.0 0.00 0.00 0.00 62 1009.8
20260504235531 80 360 11.0 24.0 0.00 0.00 0.00 62 1009.8
20260504235431 80 360 12.0 24.0 0.00 0.00 0.00 62 1009.9
20260504235332 80 360 12.0 24.0 0.00 0.00 0.00 62 1009.8
20260504235233 80 360 10.0 24.0 0.00 0.00 0.00 62 1009.9
20260504235154 80 360 8.0 21.0 0.00 0.00 0.00 62 1009.8
20260504235037 80 360 9.0 21.0 0.00 0.00 0.00 62 1009.9
20260504234937 80 360 9.0 21.0 0.00 0.00 0.00 62 1009.9
20260504234816 80 360 10.0 21.0 0.00 0.00 0.00 62 1009.9
20260504234718 80 360 10.0 25.0 0.00 0.00 0.00 62 1009.9
20260504234639 80 360 9.0 25.0 0.00 0.00 0.00 62 1009.9
20260504234519 80 360 8.0 25.0 0.00 0.00 0.00 62 1009.9
20260504234440 80 360 8.0 25.0 0.00 0.00 0.00 62 1009.8
20260504234320 80 360 9.0 25.0 0.00 0.00 0.00 62 1009.9
20260504234239 80 360 8.0 25.0 0.00 0.00 0.00 62 1009.9
20260504234143 80 360 8.0 25.0 0.00 0.00 0.00 62 1009.8
20260504234016 80 360 7.0 25.0 0.00 0.00 0.00 62 1009.9
20260504233916 80 360 7.0 25.0 0.00 0.00 0.00 62 1010.0
20260504233837 80 360 5.0 25.0 0.00 0.00 0.00 62 1010.1
20260504233716 80 360 5.0 16.0 0.00 0.00 0.00 62 1010.0
20260504233617 80 360 4.0 16.0 0.00 0.00 0.00 62 1010.1
20260504233517 80 360 5.0 16.0 0.00 0.00 0.00 62 1010.1
20260504233442 80 360 5.0 16.0 0.00 0.00 0.00 62 1010.1
20260504233321 80 360 5.0 16.0 0.00 0.00 0.00 62 1010.2
20260504233222 80 360 5.0 16.0 0.00 0.00 0.00 62 1010.3
20260504233121 80 360 5.0 16.0 0.00 0.00 0.00 62 1010.2
20260504233022 80 360 6.0 16.0 0.00 0.00 0.00 62 1010.1
20260504232922 80 360 5.0 24.0 0.00 0.00 0.00 62 1010.2
20260504232822 80 360 6.0 24.0 0.00 0.00 0.00 62 1010.3
20260504232728 80 360 7.0 24.0 0.00 0.00 0.00 61 1010.3
20260504232628 80 360 6.0 24.0 0.00 0.00 0.00 61 1010.2
20260504232527 80 360 7.0 24.0 0.00 0.00 0.00 61 1010.2
20260504232449 80 360 9.0 24.0 0.00 0.00 0.00 61 1010.2
20260504232347 80 360 9.0 24.0 0.00 0.00 0.00 61 1010.2
20260504232227 80 360 8.0 24.0 0.00 0.00 0.00 61 1010.2
20260504232127 80 360 9.0 24.0 0.00 0.00 0.00 61 1010.2
20260504232027 80 360 8.0 24.0 0.00 0.00 0.00 61 1010.2
20260504231931 80 360 7.0 22.0 0.00 0.00 0.00 61 1010.2
20260504231831 80 360 6.0 22.0 0.00 0.00 0.00 61 1010.2
20260504231732 80 360 6.0 22.0 0.00 0.00 0.00 61 1010.2
20260504231632 80 360 7.0 22.0 0.00 0.00 0.00 61 1010.2
20260504231533 80 360 6.0 22.0 0.00 0.00 0.00 61 1010.2
20260504231453 80 360 7.0 22.0 0.00 0.00 0.00 61 1010.2
20260504231353 81 360 8.0 22.0 0.00 0.00 0.00 60 1010.2
20260504231235 81 360 7.0 21.0 0.00 0.00 0.00 61 1010.2
20260504231117 81 360 7.0 21.0 0.00 0.00 0.00 61 1010.1
20260504231017 81 360 8.0 21.0 0.00 0.00 0.00 61 1010.1
20260504230917 80 360 7.0 23.0 0.00 0.00 0.00 61 1010.1
20260504230818 80 360 5.0 23.0 0.00 0.00 0.00 61 1010.1
20260504230739 80 360 5.0 23.0 0.00 0.00 0.00 62 1010.2
20260504230618 80 360 6.0 23.0 0.00 0.00 0.00 62 1010.3
20260504230543 80 360 6.0 23.0 0.00 0.00 0.00 62 1010.3
20260504230416 80 360 9.0 23.0 0.00 0.00 0.00 62 1010.3
20260504230336 80 360 11.0 23.0 0.00 0.00 0.00 62 1010.3
20260504230256 80 360 13.0 23.0 0.00 0.00 0.00 62 1010.3
20260504230116 80 360 12.0 23.0 0.00 0.00 0.00 61 1010.3
20260504230016 80 360 12.0 22.0 0.00 0.00 0.00 61 1010.4
20260504225917 80 360 10.0 22.0 0.00 0.00 0.00 61 1010.4
20260504225842 81 360 10.0 22.0 0.00 0.00 0.00 61 1010.4
20260504225720 81 360 8.0 22.0 0.00 0.00 0.00 62 1010.4
20260504225642 81 360 8.0 22.0 0.00 0.00 0.00 61 1010.4
20260504225604 81 360 8.0 22.0 0.00 0.00 0.00 61 1010.5
20260504225443 81 360 9.0 22.0 0.00 0.00 0.00 61 1010.5
20260504225316 81 360 7.0 18.0 0.00 0.00 0.00 61 1010.5
20260504225217 81 360 7.0 17.0 0.00 0.00 0.00 61 1010.4
20260504225117 81 360 6.0 17.0 0.00 0.00 0.00 61 1010.6
20260504225022 81 360 6.0 17.0 0.00 0.00 0.00 61 1010.5
20260504224942 81 360 6.0 20.0 0.00 0.00 0.00 61 1010.5
20260504224821 81 360 6.0 20.0 0.00 0.00 0.00 61 1010.6
20260504224742 81 360 7.0 22.0 0.00 0.00 0.00 61 1010.6
20260504224622 81 360 7.0 22.0 0.00 0.00 0.00 61 1010.6
20260504224522 81 360 8.0 22.0 0.00 0.00 0.00 60 1010.6
20260504224422 81 360 7.0 22.0 0.00 0.00 0.00 60 1010.5
20260504224343 81 360 7.0 22.0 0.00 0.00 0.00 60 1010.5
20260504224226 81 360 7.0 22.0 0.00 0.00 0.00 60 1010.6
20260504224127 81 360 7.0 22.0 0.00 0.00 0.00 60 1010.6
20260504224027 81 360 7.0 22.0 0.00 0.00 0.00 60 1010.6
20260504223946 81 360 7.0 22.0 0.00 0.00 0.00 60 1010.6
20260504223825 81 360 7.0 20.0 0.00 0.00 0.00 60 1010.6
20260504223727 81 360 7.0 20.0 0.00 0.00 0.00 59 1010.6
20260504223627 81 360 7.0 23.0 0.00 0.00 0.00 59 1010.7
20260504223532 81 360 7.0 23.0 0.00 0.00 0.00 60 1010.7
20260504223433 82 360 7.0 23.0 0.00 0.00 0.00 60 1010.7
20260504223333 82 360 7.0 23.0 0.00 0.00 0.00 60 1010.6
20260504223234 81 360 7.0 23.0 0.00 0.00 0.00 60 1010.7
20260504223133 81 360 8.0 23.0 0.00 0.00 0.00 60 1010.6
20260504223035 82 360 7.0 23.0 0.00 0.00 0.00 60 1010.6
20260504222920 81 360 8.0 20.0 0.00 0.00 0.00 60 1010.7
20260504222822 81 360 7.0 20.0 0.00 0.00 0.00 60 1010.7
20260504222722 81 360 8.0 20.0 0.00 0.00 0.00 60 1010.6
20260504222642 81 360 8.0 20.0 0.00 0.00 0.00 60 1010.6
20260504222603 81 360 7.0 25.0 0.00 0.00 0.00 60 1010.7
20260504222416 81 360 7.0 25.0 0.00 0.00 0.00 60 1010.7
20260504222336 81 360 8.0 25.0 0.00 0.00 0.00 60 1010.7
20260504222220 81 360 8.0 25.0 0.00 0.00 0.00 60 1010.8
20260504222121 82 360 9.0 25.0 0.00 0.00 0.00 60 1010.8
20260504222022 82 360 8.0 25.0 0.00 0.00 0.00 59 1010.8
20260504221923 82 360 11.0 25.0 0.00 0.00 0.00 59 1010.8
20260504221824 82 360 11.0 25.0 0.00 0.00 0.00 59 1010.7
20260504221723 82 360 11.0 25.0 0.00 0.00 0.00 59 1010.7
20260504221628 82 360 11.0 25.0 0.00 0.00 0.00 59 1010.7
20260504221529 82 360 9.0 25.0 0.00 0.00 0.00 60 1010.7
20260504221430 82 360 9.0 25.0 0.00 0.00 0.00 59 1010.7
20260504221329 82 360 7.0 19.0 0.00 0.00 0.00 59 1010.7
20260504221230 82 360 7.0 19.0 0.00 0.00 0.00 59 1010.6
20260504221152 82 360 8.0 19.0 0.00 0.00 0.00 59 1010.7
20260504221032 82 360 8.0 19.0 0.00 0.00 0.00 59 1010.7
20260504220917 82 360 8.0 19.0 0.00 0.00 0.00 59 1010.7
20260504220816 82 360 7.0 18.0 0.00 0.00 0.00 61 1010.7
20260504220718 82 360 7.0 18.0 0.00 0.00 0.00 61 1010.7
20260504220618 82 360 8.0 18.0 0.00 0.00 0.00 61 1010.7
20260504220519 81 360 9.0 20.0 0.00 0.00 0.00 61 1010.7
20260504220419 81 360 9.0 20.0 0.00 0.00 0.00 61 1010.8
20260504220341 81 360 10.0 20.0 0.00 0.00 0.00 62 1010.7
20260504220225 81 360 10.0 20.0 0.00 0.00 0.00 61 1010.7
20260504220126 81 360 10.0 20.0 0.00 0.00 0.00 61 1010.7
20260504220027 81 360 10.0 20.0 0.00 0.00 0.00 61 1010.8
20260504215927 81 360 9.0 26.0 0.00 0.00 0.00 61 1010.8
20260504215828 81 360 9.0 26.0 0.00 0.00 0.00 61 1010.9
20260504215729 81 360 10.0 26.0 0.00 0.00 0.00 61 1010.8
20260504215632 81 360 9.0 26.0 0.00 0.00 0.00 60 1011.0
20260504215533 81 360 11.0 26.0 0.00 0.00 0.00 60 1011.0
20260504215433 82 360 10.0 26.0 0.00 0.00 0.00 60 1011.0
20260504215334 82 360 10.0 26.0 0.00 0.00 0.00 60 1011.0
20260504215233 82 360 10.0 26.0 0.00 0.00 0.00 59 1010.9
20260504215134 82 360 9.0 26.0 0.00 0.00 0.00 59 1010.8
20260504215033 82 360 8.0 21.0 0.00 0.00 0.00 60 1010.8
20260504214918 82 360 7.0 24.0 0.00 0.00 0.00 59 1010.8
20260504214818 82 360 7.0 24.0 0.00 0.00 0.00 59 1010.8
20260504214718 82 360 9.0 24.0 0.00 0.00 0.00 59 1010.8
20260504214638 82 360 8.0 26.0 0.00 0.00 0.00 59 1010.8
20260504214518 82 360 8.0 27.0 0.00 0.00 0.00 59 1010.8
20260504214418 82 360 10.0 27.0 0.00 0.00 0.00 61 1010.8
20260504214318 82 360 11.0 27.0 0.00 0.00 0.00 61 1010.8
20260504214223 81 360 10.0 27.0 0.00 0.00 0.00 61 1010.8
20260504214123 81 360 12.0 27.0 0.00 0.00 0.00 60 1010.9
20260504214044 81 360 15.0 27.0 0.00 0.00 0.00 60 1010.9
20260504213923 81 360 15.0 27.0 0.00 0.00 0.00 60 1011.0
20260504213823 81 360 14.0 27.0 0.00 0.00 0.00 60 1010.8
20260504213722 81 360 15.0 27.0 0.00 0.00 0.00 60 1010.9
20260504213622 81 360 14.0 26.0 0.00 0.00 0.00 60 1010.8
20260504213527 81 360 12.0 25.0 0.00 0.00 0.00 61 1010.8
20260504213427 81 360 12.0 25.0 0.00 0.00 0.00 60 1010.8
20260504213348 81 360 10.0 25.0 0.00 0.00 0.00 60 1010.9
20260504213227 81 360 8.0 23.0 0.00 0.00 0.00 61 1010.9
20260504213127 81 360 8.0 23.0 0.00 0.00 0.00 61 1010.8
20260504213027 81 360 7.0 23.0 0.00 0.00 0.00 61 1010.9
20260504212928 81 360 7.0 23.0 0.00 0.00 0.00 60 1011.0
20260504212833 81 360 9.0 23.0 0.00 0.00 0.00 61 1011.0
20260504212734 81 360 9.0 23.0 0.00 0.00 0.00 61 1011.0
20260504212634 81 360 11.0 23.0 0.00 0.00 0.00 61 1011.1
20260504212556 81 360 12.0 23.0 0.00 0.00 0.00 61 1011.1
20260504212436 81 360 12.0 23.0 0.00 0.00 0.00 61 1011.1
20260504212316 80 360 12.0 20.0 0.00 0.00 0.00 61 1011.0
20260504212217 80 360 12.0 20.0 0.00 0.00 0.00 61 1011.1
20260504212121 80 360 11.0 20.0 0.00 0.00 0.00 60 1011.2
20260504212023 81 360 10.0 20.0 0.00 0.00 0.00 61 1011.1
20260504211942 81 360 9.0 20.0 0.00 0.00 0.00 60 1011.1
20260504211816 81 360 9.0 20.0 0.00 0.00 0.00 60 1011.2
20260504211737 81 360 9.0 29.0 0.00 0.00 0.00 60 1011.2
20260504211616 82 360 9.0 29.0 0.00 0.00 0.00 60 1011.1
20260504211516 82 360 8.0 29.0 0.00 0.00 0.00 59 1011.2
20260504211420 82 360 6.0 29.0 0.00 0.00 0.00 60 1011.3
20260504211321 82 360 7.0 29.0 0.00 0.00 0.00 60 1011.3
20260504211220 82 360 8.0 29.0 0.00 0.00 0.00 60 1011.3
20260504211120 81 360 10.0 29.0 0.00 0.00 0.00 60 1011.3
20260504211021 81 360 12.0 29.0 0.00 0.00 0.00 59 1011.3
20260504210921 82 360 11.0 29.0 0.00 0.00 0.00 59 1011.3
20260504210822 82 360 10.0 22.0 0.00 0.00 0.00 60 1011.3
20260504210728 82 360 9.0 21.0 0.00 0.00 0.00 60 1011.3
20260504210629 82 360 8.0 21.0 0.00 0.00 0.00 59 1011.4
20260504210528 82 360 6.0 21.0 0.00 0.00 0.00 59 1011.4
20260504210428 82 360 7.0 21.0 0.00 0.00 0.00 59 1011.5
20260504210329 82 360 7.0 21.0 0.00 0.00 0.00 59 1011.4
20260504210229 82 360 8.0 21.0 0.00 0.00 0.00 59 1011.4
20260504210129 82 360 8.0 21.0 0.00 0.00 0.00 59 1011.6
20260504210035 82 360 9.0 21.0 0.00 0.00 0.00 60 1011.6
20260504205916 82 360 8.0 21.0 0.00 0.00 0.00 60 1011.5
20260504205817 82 360 7.0 19.0 0.00 0.00 0.00 60 1011.6
20260504205717 82 360 5.0 19.0 0.00 0.00 0.00 59 1011.6
20260504205617 82 360 4.0 19.0 0.00 0.00 0.00 61 1011.6
20260504205517 82 360 6.0 19.0 0.00 0.00 0.00 61 1011.6
20260504205421 82 242 7.0 19.0 0.00 0.00 0.00 63 1011.6
20260504205322 82 360 8.0 19.0 0.00 0.00 0.00 60 1011.6
20260504205242 82 360 8.0 24.0 0.00 0.00 0.00 60 1011.7
20260504205122 82 360 7.0 24.0 0.00 0.00 0.00 59 1011.6
20260504205044 82 360 6.0 24.0 0.00 0.00 0.00 58 1011.7
20260504204922 82 360 6.0 24.0 0.00 0.00 0.00 59 1011.7
20260504204823 82 360 6.0 24.0 0.00 0.00 0.00 59 1011.7
20260504204723 82 360 8.0 24.0 0.00 0.00 0.00 60 1011.6
20260504204628 82 360 10.0 24.0 0.00 0.00 0.00 61 1011.6
20260504204528 81 360 12.0 24.0 0.00 0.00 0.00 61 1011.7
20260504204429 81 360 13.0 23.0 0.00 0.00 0.00 60 1011.6
20260504204330 81 360 11.0 23.0 0.00 0.00 0.00 60 1011.6
20260504204230 82 360 9.0 19.0 0.00 0.00 0.00 60 1011.6
20260504204130 82 360 8.0 19.0 0.00 0.00 0.00 60 1011.7
20260504204034 81 360 9.0 19.0 0.00 0.00 0.00 60 1011.7
20260504203955 81 360 11.0 19.0 0.00 0.00 0.00 61 1011.8
20260504203834 81 360 12.0 20.0 0.00 0.00 0.00 61 1011.7
20260504203734 81 360 11.0 20.0 0.00 0.00 0.00 61 1011.7
20260504203635 81 360 11.0 20.0 0.00 0.00 0.00 60 1011.8
20260504203535 81 360 10.0 22.0 0.00 0.00 0.00 61 1011.8
20260504203436 81 360 10.0 22.0 0.00 0.00 0.00 61 1011.8
20260504203339 81 360 10.0 26.0 0.00 0.00 0.00 60 1012.0
20260504203219 81 360 10.0 26.0 0.00 0.00 0.00 60 1012.0
20260504203120 81 360 10.0 26.0 0.00 0.00 0.00 60 1012.0
20260504203021 81 360 11.0 26.0 0.00 0.00 0.00 60 1012.1
20260504202943 81 360 12.0 26.0 0.00 0.00 0.00 60 1012.1
20260504202823 81 360 12.0 26.0 0.00 0.00 0.00 60 1012.0
20260504202742 81 360 12.0 26.0 0.00 0.00 0.00 60 1012.0
20260504202622 81 360 11.0 26.0 0.00 0.00 0.00 60 1012.1
20260504202526 81 360 10.0 26.0 0.00 0.00 0.00 60 1012.1
20260504202446 81 360 8.0 26.0 0.00 0.00 0.00 60 1012.1
20260504202326 81 360 10.0 26.0 0.00 0.00 0.00 60 1012.1
20260504202227 81 360 12.0 26.0 0.00 0.00 0.00 60 1012.1
20260504202127 81 360 12.0 26.0 0.00 0.00 0.00 60 1012.2
20260504202048 81 360 11.0 26.0 0.00 0.00 0.00 60 1012.1
20260504201927 81 360 11.0 26.0 0.00 0.00 0.00 60 1012.3
20260504201831 81 360 8.0 23.0 0.00 0.00 0.00 60 1012.0
20260504201732 81 360 6.0 20.0 0.00 0.00 0.00 61 1012.2
20260504201632 81 360 7.0 20.0 0.00 0.00 0.00 61 1012.2
20260504201553 81 360 8.0 20.0 0.00 0.00 0.00 61 1012.2
20260504201433 81 360 8.0 20.0 0.00 0.00 0.00 61 1012.2
20260504201334 81 360 7.0 20.0 0.00 0.00 0.00 61 1012.2
20260504201254 81 360 8.0 20.0 0.00 0.00 0.00 60 1012.2
20260504201117 81 360 8.0 20.0 0.00 0.00 0.00 61 1012.2
20260504201019 81 360 9.0 20.0 0.00 0.00 0.00 61 1012.3
20260504200918 81 360 9.0 22.0 0.00 0.00 0.00 62 1012.4
20260504200819 80 360 10.0 22.0 0.00 0.00 0.00 61 1012.3
20260504200719 80 360 11.0 22.0 0.00 0.00 0.00 62 1012.4
20260504200619 80 360 10.0 22.0 0.00 0.00 0.00 62 1012.5
20260504200520 80 360 10.0 22.0 0.00 0.00 0.00 61 1012.5
20260504200440 80 360 9.0 22.0 0.00 0.00 0.00 60 1012.4
20260504200324 80 360 9.0 22.0 0.00 0.00 0.00 60 1012.4
20260504200225 81 360 8.0 22.0 0.00 0.00 0.00 60 1012.5
20260504200125 81 360 9.0 22.0 0.00 0.00 0.00 61 1012.5
20260504200025 81 360 7.0 17.0 0.00 0.00 0.00 61 1012.5
20260504195927 81 360 7.0 20.0 0.00 0.00 0.00 61 1012.5
20260504195827 81 360 7.0 20.0 0.00 0.00 0.00 61 1012.4
20260504195732 81 360 7.0 20.0 0.00 0.00 0.00 61 1012.5
20260504195631 80 360 6.0 20.0 0.00 0.00 0.00 61 1012.5
20260504195532 80 360 7.0 20.0 0.00 0.00 0.00 62 1012.6
20260504195432 80 360 8.0 20.0 0.00 0.00 0.00 62 1012.5
20260504195331 80 360 8.0 20.0 0.00 0.00 0.00 62 1012.6
20260504195232 80 360 8.0 20.0 0.00 0.00 0.00 61 1012.6
20260504195132 80 360 8.0 20.0 0.00 0.00 0.00 60 1012.7
20260504195017 80 360 7.0 18.0 0.00 0.00 0.00 61 1012.8
20260504194916 80 360 6.0 25.0 0.00 0.00 0.00 62 1012.7
20260504194816 80 360 6.0 25.0 0.00 0.00 0.00 62 1012.8
20260504194717 80 360 7.0 25.0 0.00 0.00 0.00 62 1012.8
20260504194618 79 360 6.0 25.0 0.00 0.00 0.00 62 1012.9
20260504194538 79 360 7.0 25.0 0.00 0.00 0.00 62 1012.8
20260504194418 79 360 9.0 25.0 0.00 0.00 0.00 61 1012.9
20260504194339 79 360 10.0 25.0 0.00 0.00 0.00 62 1012.8
20260504194223 79 360 12.0 25.0 0.00 0.00 0.00 62 1012.8
20260504194123 79 360 15.0 25.0 0.00 0.00 0.00 63 1012.9
20260504194023 79 360 14.0 25.0 0.00 0.00 0.00 63 1012.8
20260504193924 79 360 12.0 21.0 0.00 0.00 0.00 62 1012.7
20260504193825 79 360 12.0 20.0 0.00 0.00 0.00 62 1012.8
20260504193725 80 360 11.0 19.0 0.00 0.00 0.00 62 1012.8
20260504193630 80 360 9.0 19.0 0.00 0.00 0.00 62 1012.8
20260504193530 79 360 8.0 19.0 0.00 0.00 0.00 62 1012.8
20260504193431 79 360 8.0 18.0 0.00 0.00 0.00 62 1012.8
20260504193329 79 360 7.0 18.0 0.00 0.00 0.00 62 1012.9
20260504193250 79 360 7.0 18.0 0.00 0.00 0.00 62 1012.9
20260504193130 79 360 7.0 18.0 0.00 0.00 0.00 62 1013.0
20260504193030 79 360 7.0 18.0 0.00 0.00 0.00 62 1013.0
20260504192951 80 360 7.0 18.0 0.00 0.00 0.00 62 1013.1
20260504192835 80 360 8.0 17.0 0.00 0.00 0.00 62 1013.1
20260504192737 80 360 8.0 18.0 0.00 0.00 0.00 61 1013.0
20260504192656 80 360 8.0 18.0 0.00 0.00 0.00 61 1013.1
20260504192534 80 360 8.0 18.0 0.00 0.00 0.00 61 1013.1
20260504192433 81 360 7.0 20.0 0.00 0.00 0.00 61 1013.1
20260504192334 80 360 8.0 20.0 0.00 0.00 0.00 61 1013.1
20260504192235 80 360 8.0 20.0 0.00 0.00 0.00 61 1013.2
20260504192119 81 360 8.0 20.0 0.00 0.00 0.00 61 1013.1
20260504192019 81 360 9.0 20.0 0.00 0.00 0.00 61 1013.1
20260504191919 80 360 9.0 20.0 0.00 0.00 0.00 60 1013.2
20260504191819 80 360 8.0 20.0 0.00 0.00 0.00 60 1013.2
20260504191720 80 360 7.0 19.0 0.00 0.00 0.00 59 1013.2
20260504191620 81 360 7.0 19.0 0.00 0.00 0.00 59 1013.2
20260504191521 81 360 5.0 18.0 0.00 0.00 0.00 60 1013.3
20260504191426 81 360 6.0 14.0 0.00 0.00 0.00 61 1013.3
20260504191327 81 360 6.0 14.0 0.00 0.00 0.00 60 1013.3
20260504191247 81 360 6.0 14.0 0.00 0.00 0.00 60 1013.4
20260504191127 81 360 6.0 15.0 0.00 0.00 0.00 60 1013.4
20260504191027 81 360 7.0 15.0 0.00 0.00 0.00 61 1013.3
20260504190928 80 360 5.0 15.0 0.00 0.00 0.00 62 1013.4
20260504190848 80 360 6.0 17.0 0.00 0.00 0.00 62 1013.4
20260504190727 80 360 5.0 17.0 0.00 0.00 0.00 63 1013.4
20260504190632 79 360 6.0 17.0 0.00 0.00 0.00 63 1013.5
20260504190532 79 360 6.0 17.0 0.00 0.00 0.00 63 1013.4
20260504190453 79 360 8.0 17.0 0.00 0.00 0.00 62 1013.5
20260504190332 78 360 8.0 19.0 0.00 0.00 0.00 62 1013.5
20260504190253 78 360 8.0 19.0 0.00 0.00 0.00 62 1013.5
20260504190152 79 360 7.0 19.0 0.00 0.00 0.00 62 1013.5
20260504190031 79 360 7.0 19.0 0.00 0.00 0.00 61 1013.5
20260504185916 79 360 6.0 19.0 0.00 0.00 0.00 62 1013.5
20260504185818 80 360 8.0 19.0 0.00 0.00 0.00 61 1013.5
20260504185718 80 360 8.0 19.0 0.00 0.00 0.00 60 1013.5
20260504185618 80 360 8.0 19.0 0.00 0.00 0.00 60 1013.5
20260504185538 80 360 9.0 19.0 0.00 0.00 0.00 62 1013.5
20260504185418 80 360 8.0 19.0 0.00 0.00 0.00 62 1013.5
20260504185319 80 360 6.0 18.0 0.00 0.00 0.00 62 1013.5
20260504185238 80 360 7.0 17.0 0.00 0.00 0.00 62 1013.5
20260504185122 80 360 6.0 17.0 0.00 0.00 0.00 62 1013.6
20260504185022 80 360 6.0 15.0 0.00 0.00 0.00 62 1013.5
20260504184923 79 360 6.0 15.0 0.00 0.00 0.00 62 1013.5
20260504184823 79 360 6.0 15.0 0.00 0.00 0.00 62 1013.4
20260504184723 79 360 5.0 17.0 0.00 0.00 0.00 62 1013.5
20260504184624 79 360 5.0 17.0 0.00 0.00 0.00 62 1013.5
20260504184528 79 360 5.0 17.0 0.00 0.00 0.00 63 1013.5
20260504184429 79 360 6.0 17.0 0.00 0.00 0.00 63 1013.5
20260504184329 79 360 6.0 21.0 0.00 0.00 0.00 63 1013.5
20260504184229 79 360 7.0 21.0 0.00 0.00 0.00 63 1013.5
20260504184149 78 360 7.0 21.0 0.00 0.00 0.00 63 1013.5
20260504184029 79 360 6.0 21.0 0.00 0.00 0.00 63 1013.7
20260504183930 79 360 6.0 21.0 0.00 0.00 0.00 63 1013.7
20260504183834 79 360 6.0 21.0 0.00 0.00 0.00 63 1013.8
20260504183735 78 360 6.0 21.0 0.00 0.00 0.00 64 1013.7
20260504183616 78 360 8.0 21.0 0.00 0.00 0.00 64 1013.7
20260504183536 78 360 9.0 21.0 0.00 0.00 0.00 65 1013.7
20260504183436 78 360 11.0 21.0 0.00 0.00 0.00 64 1013.9
20260504183316 78 360 10.0 19.0 0.00 0.00 0.00 64 1013.8
20260504183216 78 360 8.0 19.0 0.00 0.00 0.00 63 1013.8
20260504183121 78 360 7.0 19.0 0.00 0.00 0.00 63 1013.8
20260504183021 78 360 7.0 19.0 0.00 0.00 0.00 65 1013.9
20260504182942 78 360 6.0 19.0 0.00 0.00 0.00 64 1013.8
20260504182823 78 360 7.0 21.0 0.00 0.00 0.00 64 1014.0
20260504182721 78 360 8.0 21.0 0.00 0.00 0.00 64 1014.0
20260504182623 78 360 9.0 21.0 0.00 0.00 0.00 64 1014.0
20260504182523 78 360 8.0 21.0 0.00 0.00 0.00 64 1014.0
20260504182428 78 360 10.0 21.0 0.00 0.00 0.00 65 1014.0
20260504182328 78 360 10.0 21.0 0.00 0.00 0.00 65 1014.1
20260504182227 78 360 10.0 24.0 0.00 0.00 0.00 65 1014.0
20260504182127 78 360 10.0 24.0 0.00 0.00 0.00 65 1014.1
20260504182049 78 360 11.0 24.0 0.00 0.00 0.00 64 1014.0
20260504181927 78 360 10.0 24.0 0.00 0.00 0.00 64 1014.0
20260504181827 78 360 9.0 24.0 0.00 0.00 0.00 64 1014.0
20260504181728 78 360 10.0 24.0 0.00 0.00 0.00 65 1014.0
20260504181633 78 360 10.0 24.0 0.00 0.00 0.00 64 1014.2
20260504181533 77 360 9.0 24.0 0.00 0.00 0.00 65 1014.1
20260504181434 77 360 8.0 24.0 0.00 0.00 0.00 64 1014.1
20260504181334 78 360 8.0 23.0 0.00 0.00 0.00 64 1014.2
20260504181234 78 360 7.0 21.0 0.00 0.00 0.00 63 1014.1
20260504181135 78 360 7.0 21.0 0.00 0.00 0.00 63 1014.2
20260504181019 78 360 6.0 21.0 0.00 0.00 0.00 65 1014.2
20260504180940 78 360 6.0 21.0 0.00 0.00 0.00 65 1014.1
20260504180820 78 360 6.0 21.0 0.00 0.00 0.00 63 1014.1
20260504180719 78 360 5.0 21.0 0.00 0.00 0.00 64 1014.1
20260504180620 78 360 5.0 18.0 0.00 0.00 0.00 65 1014.1
20260504180520 78 360 6.0 18.0 0.00 0.00 0.00 65 1014.1
20260504180421 78 360 8.0 18.0 0.00 0.00 0.00 66 1014.2
20260504180325 77 360 9.0 18.0 0.00 0.00 0.00 65 1014.1
20260504180225 77 360 9.0 18.0 0.00 0.00 0.00 65 1014.1
20260504180125 77 360 8.0 18.0 0.00 0.00 0.00 65 1014.1
20260504180026 77 360 7.0 19.0 0.00 0.00 0.00 65 1014.1
20260504175948 77 360 6.0 19.0 0.00 0.00 0.00 67 1014.2
20260504175827 77 360 6.0 19.0 0.00 0.00 0.00 67 1014.1
20260504175729 77 360 5.0 19.0 0.00 0.00 0.00 67 1014.1
20260504175631 77 360 7.0 19.0 0.00 0.00 0.00 66 1014.1
20260504175531 77 360 6.0 19.0 0.00 0.00 0.00 67 1014.1
20260504175432 76 360 6.0 19.0 0.00 0.00 0.00 67 1014.2
20260504175331 76 360 5.0 19.0 0.00 0.00 0.00 67 1014.2
20260504175233 76 360 5.0 19.0 0.00 0.00 0.00 67 1014.2
20260504175134 76 360 4.0 15.0 0.00 0.00 0.00 67 1014.2
20260504175039 76 360 6.0 15.0 0.00 0.00 0.00 67 1014.3
20260504174918 76 360 7.0 15.0 0.00 0.00 0.00 68 1014.3
20260504174838 76 360 7.0 15.0 0.00 0.00 0.00 68 1014.3
20260504174720 76 360 7.0 15.0 0.00 0.00 0.00 68 1014.3
20260504174620 75 360 6.0 15.0 0.00 0.00 0.00 67 1014.3
20260504174521 76 360 5.0 15.0 0.00 0.00 0.00 67 1014.3
20260504174421 76 360 5.0 16.0 0.00 0.00 0.00 67 1014.3
20260504174326 76 360 5.0 16.0 0.00 0.00 0.00 67 1014.3
20260504174226 76 360 4.0 16.0 0.00 0.00 0.00 67 1014.3
20260504174126 76 360 4.0 16.0 0.00 0.00 0.00 66 1014.3
20260504174027 76 360 5.0 16.0 0.00 0.00 0.00 67 1014.4
20260504173926 76 360 5.0 17.0 0.00 0.00 0.00 67 1014.4
20260504173826 75 360 5.0 17.0 0.00 0.00 0.00 67 1014.5
20260504173727 75 360 6.0 17.0 0.00 0.00 0.00 68 1014.7
20260504173651 75 360 6.0 17.0 0.00 0.00 0.00 68 1014.7
20260504173530 75 360 6.0 17.0 0.00 0.00 0.00 67 1014.7
20260504173431 75 360 6.0 17.0 0.00 0.00 0.00 67 1014.8
20260504173332 75 360 6.0 17.0 0.00 0.00 0.00 67 1014.8
20260504173251 75 360 6.0 17.0 0.00 0.00 0.00 67 1014.8
20260504173132 75 360 7.0 17.0 0.00 0.00 0.00 67 1014.9
20260504173053 75 360 7.0 17.0 0.00 0.00 0.00 67 1014.8
20260504172916 76 360 8.0 16.0 0.00 0.00 0.00 67 1014.8
20260504172818 76 360 8.0 16.0 0.00 0.00 0.00 67 1014.8
20260504172717 76 360 9.0 16.0 0.00 0.00 0.00 67 1015.0
20260504172639 76 360 8.0 16.0 0.00 0.00 0.00 67 1015.0
20260504172539 76 360 8.0 16.0 0.00 0.00 0.00 67 1014.9
20260504172418 76 360 7.0 16.0 0.00 0.00 0.00 67 1014.9
20260504172318 75 360 6.0 16.0 0.00 0.00 0.00 67 1015.0
20260504172218 76 360 7.0 16.0 0.00 0.00 0.00 66 1015.0
20260504172138 76 360 7.0 16.0 0.00 0.00 0.00 67 1015.0
20260504172023 76 360 6.0 16.0 0.00 0.00 0.00 66 1014.9
20260504171923 76 360 6.0 16.0 0.00 0.00 0.00 66 1014.9
20260504171822 76 360 6.0 16.0 0.00 0.00 0.00 68 1015.0
20260504171743 76 360 5.0 16.0 0.00 0.00 0.00 68 1015.1
20260504171623 76 360 5.0 16.0 0.00 0.00 0.00 68 1015.0
20260504171523 75 360 6.0 16.0 0.00 0.00 0.00 68 1015.1
20260504171423 75 360 6.0 17.0 0.00 0.00 0.00 68 1015.2
20260504171328 75 360 6.0 17.0 0.00 0.00 0.00 68 1015.2
20260504171228 75 360 6.0 21.0 0.00 0.00 0.00 68 1015.2
20260504171129 75 360 5.0 21.0 0.00 0.00 0.00 69 1015.2
20260504171028 74 360 6.0 21.0 0.00 0.00 0.00 69 1015.2
20260504170928 74 360 6.0 21.0 0.00 0.00 0.00 69 1015.2
20260504170828 74 360 6.0 21.0 0.00 0.00 0.00 69 1015.2
20260504170729 74 360 8.0 21.0 0.00 0.00 0.00 69 1015.2
20260504170632 74 360 8.0 21.0 0.00 0.00 0.00 69 1015.3
20260504170533 74 360 9.0 21.0 0.00 0.00 0.00 69 1015.2
20260504170453 74 360 9.0 21.0 0.00 0.00 0.00 69 1015.2
20260504170333 74 360 9.0 21.0 0.00 0.00 0.00 71 1015.1
20260504170232 73 360 9.0 21.0 0.00 0.00 0.00 71 1015.1
20260504170133 73 360 9.0 21.0 0.00 0.00 0.00 71 1015.1